Time,TemperatureF,DewpointF,PressureIn,WindDirection,WindDirectionDegrees,WindSpeedMPH,WindSpeedGustMPH,Humidity,HourlyPrecipIn,Conditions,Clouds,dailyrainin,SoftwareType,DateUTC
2013-07-24 00:01:00,68.0,52.2,29.51,SSW,202,2.6,2.6,57,0.00,RA,,0.00,WeatherDisplay:10.37,2013-07-24 04:01:00,
2013-07-24 00:06:00,68.0,52.2,29.51,ESE,112,0.0,0.0,57,0.00,RA,,0.00,WeatherDisplay:10.37,2013-07-24 04:06:00,
2013-07-24 00:11:00,67.8,52.0,29.51,NE,45,2.3,2.3,57,0.00,CLR,,0.00,WeatherDisplay:10.37,2013-07-24 04:11:00,
2013-07-24 00:12:00,67.8,52.0,29.51,ESE,112,2.3,0.0,57,0.00,CLR,,0.00,WeatherDisplay:10.37,2013-07-24 04:12:00,
2013-07-24 00:16:00,67.8,52.0,29.51,ENE,68,0.0,0.0,57,0.00,CLR,,0.00,WeatherDisplay:10.37,2013-07-24 04:16:00,
2013-07-24 00:17:00,67.8,52.0,29.51,ENE,68,0.0,0.0,57,0.00,CLR,,0.00,WeatherDisplay:10.37,2013-07-24 04:17:00,
2013-07-24 00:21:00,67.6,51.9,29.51,NE,45,1.2,0.0,57,0.00,CLR,,0.00,WeatherDisplay:10.37,2013-07-24 04:21:00,
2013-07-24 00:22:00,67.6,51.9,29.51,NE,45,1.2,0.0,57,0.00,CLR,,0.00,WeatherDisplay:10.37,2013-07-24 04:22:00,
2013-07-24 00:27:00,67.6,52.3,29.51,ENE,68,3.5,3.5,58,0.00,CLR,,0.00,WeatherDisplay:10.37,2013-07-24 04:27:00,
2013-07-24 00:32:00,67.6,52.3,29.51,NNW,338,2.0,2.0,58,0.00,CLR,,0.00,WeatherDisplay:10.37,2013-07-24 04:32:00,
2013-07-24 00:37:00,67.5,52.2,29.51,ENE,68,2.6,0.0,58,0.00,CLR,,0.00,WeatherDisplay:10.37,2013-07-24 04:37:00,
2013-07-24 00:42:00,67.5,52.2,29.51,NE,45,2.3,2.3,58,0.00,CLR,,0.00,WeatherDisplay:10.37,2013-07-24 04:42:00,
2013-07-24 00:43:00,67.5,52.2,29.51,NE,45,1.2,1.6,58,0.00,CLR,,0.00,WeatherDisplay:10.37,2013-07-24 04:43:00,
2013-07-24 00:47:00,67.5,52.6,29.51,NE,45,2.3,0.0,59,0.00,CLR,,0.00,WeatherDisplay:10.37,2013-07-24 04:47:00,
2013-07-24 00:48:00,67.5,52.6,29.51,NE,45,0.0,0.0,59,0.00,CLR,,0.00,WeatherDisplay:10.37,2013-07-24 04:48:00,
2013-07-24 00:52:00,67.5,52.6,29.54,ENE,68,5.8,5.8,59,0.00,CLR,,0.00,WeatherDisplay:10.37,2013-07-24 04:52:00,
2013-07-24 00:53:00,67.3,52.5,29.54,ENE,68,5.8,5.8,59,0.00,CLR,,0.00,WeatherDisplay:10.37,2013-07-24 04:53:00,
2013-07-24 00:57:00,67.3,52.5,29.54,SE,135,3.5,3.5,59,0.00,CLR,,0.00,WeatherDisplay:10.37,2013-07-24 04:57:00,
2013-07-24 00:58:00,67.1,51.8,29.54,ENE,68,3.5,3.5,58,0.00,CLR,,0.00,WeatherDisplay:10.37,2013-07-24 04:58:00,
2013-07-24 00:59:00,67.1,51.8,29.54,ENE,68,3.5,3.5,58,0.00,CLR,,0.00,WeatherDisplay:10.37,2013-07-24 04:59:00,
2013-07-24 01:03:00,67.1,51.4,29.54,NE,45,5.8,5.8,57,0.00,CLR,,0.00,WeatherDisplay:10.37,2013-07-24 05:03:00,
2013-07-24 01:04:00,66.9,51.2,29.54,NE,45,2.3,2.3,57,0.00,CLR,,0.00,WeatherDisplay:10.37,2013-07-24 05:04:00,
2013-07-24 01:08:00,66.9,51.2,29.51,East,90,3.5,3.5,57,0.00,CLR,,0.00,WeatherDisplay:10.37,2013-07-24 05:08:00,
2013-07-24 01:09:00,66.9,51.2,29.51,East,90,3.5,3.5,57,0.00,CLR,,0.00,WeatherDisplay:10.37,2013-07-24 05:09:00,
2013-07-24 01:13:00,66.7,51.0,29.51,SSE,158,1.2,1.2,57,0.00,CLR,,0.00,WeatherDisplay:10.37,2013-07-24 05:13:00,
2013-07-24 01:14:00,66.7,51.0,29.51,SSW,202,2.3,2.4,57,0.00,CLR,,0.00,WeatherDisplay:10.37,2013-07-24 05:14:00,
2013-07-24 01:18:00,66.7,50.5,29.51,ENE,68,3.5,3.6,56,0.00,CLR,,0.00,WeatherDisplay:10.37,2013-07-24 05:18:00,
2013-07-24 01:19:00,66.7,50.5,29.51,ENE,68,3.5,3.6,56,0.00,CLR,,0.00,WeatherDisplay:10.37,2013-07-24 05:19:00,
2013-07-24 01:24:00,66.6,50.4,29.51,East,90,0.0,0.9,56,0.00,CLR,,0.00,WeatherDisplay:10.37,2013-07-24 05:24:00,
2013-07-24 01:25:00,66.6,50.8,29.51,NW,315,3.6,3.6,57,0.00,CLR,,0.00,WeatherDisplay:10.37,2013-07-24 05:25:00,
2013-07-24 01:29:00,66.6,50.8,29.51,ESE,112,2.3,0.0,57,0.00,CLR,,0.00,WeatherDisplay:10.37,2013-07-24 05:29:00,
2013-07-24 01:30:00,66.6,50.8,29.51,ENE,68,3.8,0.0,57,0.00,CLR,,0.00,WeatherDisplay:10.37,2013-07-24 05:30:00,
2013-07-24 01:34:00,66.6,50.8,29.51,North,0,2.3,2.3,57,0.00,CLR,,0.00,WeatherDisplay:10.37,2013-07-24 05:34:00,
2013-07-24 01:35:00,66.6,50.8,29.51,ESE,112,2.3,2.3,57,0.00,CLR,,0.00,WeatherDisplay:10.37,2013-07-24 05:35:00,
2013-07-24 01:39:00,66.4,50.7,29.51,NNW,338,3.5,3.5,57,0.00,CLR,,0.00,WeatherDisplay:10.37,2013-07-24 05:39:00,
2013-07-24 01:40:00,66.4,50.7,29.51,East,90,3.5,3.5,57,0.00,CLR,,0.00,WeatherDisplay:10.37,2013-07-24 05:40:00,
2013-07-24 01:44:00,66.4,50.7,29.51,ESE,112,2.3,2.3,57,0.00,CLR,,0.00,WeatherDisplay:10.37,2013-07-24 05:44:00,
2013-07-24 01:45:00,66.4,50.7,29.51,East,90,0.0,0.0,57,0.00,CLR,,0.00,WeatherDisplay:10.37,2013-07-24 05:45:00,
2013-07-24 01:49:00,66.4,50.7,29.51,ENE,68,2.3,2.3,57,0.00,CLR,,0.00,WeatherDisplay:10.37,2013-07-24 05:49:00,
2013-07-24 01:50:00,66.4,50.7,29.51,ESE,112,2.3,2.3,57,0.00,CLR,,0.00,WeatherDisplay:10.37,2013-07-24 05:50:00,
2013-07-24 01:54:00,66.4,50.7,29.51,ENE,68,2.4,0.0,57,0.00,CLR,,0.00,WeatherDisplay:10.37,2013-07-24 05:54:00,
2013-07-24 01:55:00,66.4,50.7,29.51,ESE,112,2.3,0.0,57,0.00,CLR,,0.00,WeatherDisplay:10.37,2013-07-24 05:55:00,
2013-07-24 01:56:00,66.4,50.7,29.51,ESE,112,1.2,0.0,57,0.00,CLR,,0.00,WeatherDisplay:10.37,2013-07-24 05:56:00,
2013-07-24 01:59:00,66.2,50.5,29.51,ENE,68,4.3,0.0,57,0.00,CLR,,0.00,WeatherDisplay:10.37,2013-07-24 05:59:00,
2013-07-24 02:00:00,66.2,50.5,29.51,ENE,68,4.6,0.0,57,0.00,CLR,,0.00,WeatherDisplay:10.37,2013-07-24 06:00:00,
2013-07-24 02:01:00,66.2,50.5,29.51,ENE,68,4.6,0.0,57,0.00,CLR,,0.00,WeatherDisplay:10.37,2013-07-24 06:01:00,
2013-07-24 02:05:00,66.2,50.5,29.51,ESE,112,0.0,1.4,57,0.00,CLR,,0.00,WeatherDisplay:10.37,2013-07-24 06:05:00,
2013-07-24 02:06:00,66.2,50.5,29.51,NNE,22,1.2,0.0,57,0.00,CLR,,0.00,WeatherDisplay:10.37,2013-07-24 06:06:00,
2013-07-24 02:10:00,66.0,50.3,29.51,ENE,68,1.2,1.4,57,0.00,CLR,,0.00,WeatherDisplay:10.37,2013-07-24 06:10:00,
2013-07-24 02:11:00,66.0,50.3,29.51,ESE,112,2.3,2.3,57,0.00,CLR,,0.00,WeatherDisplay:10.37,2013-07-24 06:11:00,
2013-07-24 02:15:00,66.0,50.8,29.51,East,90,3.8,3.8,58,0.00,CLR,,0.00,WeatherDisplay:10.37,2013-07-24 06:15:00,
2013-07-24 02:16:00,66.0,50.8,29.51,WSW,248,4.9,4.9,58,0.00,CLR,,0.00,WeatherDisplay:10.37,2013-07-24 06:16:00,
2013-07-24 02:17:00,66.0,50.8,29.51,ENE,68,4.6,4.6,58,0.00,CLR,,0.00,WeatherDisplay:10.37,2013-07-24 06:17:00,
2013-07-24 02:20:00,66.0,50.8,29.51,WNW,292,1.2,2.4,58,0.00,CLR,,0.00,WeatherDisplay:10.37,2013-07-24 06:20:00,
2013-07-24 02:22:00,66.0,51.3,29.51,NE,45,1.2,0.0,59,0.00,CLR,,0.00,WeatherDisplay:10.37,2013-07-24 06:22:00,
2013-07-24 02:25:00,65.8,51.1,29.51,ENE,68,2.3,0.0,59,0.00,CLR,,0.00,WeatherDisplay:10.37,2013-07-24 06:25:00,
2013-07-24 02:27:00,65.8,51.1,29.51,WNW,292,3.8,3.8,59,0.00,CLR,,0.00,WeatherDisplay:10.37,2013-07-24 06:27:00,
2013-07-24 02:31:00,65.8,51.6,29.51,North,0,3.8,3.8,60,0.00,CLR,,0.00,WeatherDisplay:10.37,2013-07-24 06:31:00,
2013-07-24 02:32:00,65.7,51.8,29.51,NNE,22,3.5,3.5,61,0.00,CLR,,0.00,WeatherDisplay:10.37,2013-07-24 06:32:00,
2013-07-24 02:37:00,65.7,51.8,29.51,ESE,112,1.2,1.4,61,0.00,CLR,,0.00,WeatherDisplay:10.37,2013-07-24 06:37:00,
2013-07-24 02:38:00,65.7,51.8,29.51,North,0,2.6,2.6,61,0.00,CLR,,0.00,WeatherDisplay:10.37,2013-07-24 06:38:00,
2013-07-24 02:42:00,65.7,51.8,29.51,NNE,22,2.3,2.3,61,0.00,CLR,,0.00,WeatherDisplay:10.37,2013-07-24 06:42:00,
2013-07-24 02:43:00,65.7,51.8,29.51,North,0,1.4,0.0,61,0.00,CLR,,0.00,WeatherDisplay:10.37,2013-07-24 06:43:00,
2013-07-24 02:47:00,65.7,52.3,29.51,North,0,2.6,0.0,62,0.00,CLR,,0.00,WeatherDisplay:10.37,2013-07-24 06:47:00,
2013-07-24 02:48:00,65.7,52.3,29.51,NNE,22,2.3,0.0,62,0.00,CLR,,0.00,WeatherDisplay:10.37,2013-07-24 06:48:00,
2013-07-24 02:52:00,65.5,52.1,29.51,NE,45,2.3,2.3,62,0.00,CLR,,0.00,WeatherDisplay:10.37,2013-07-24 06:52:00,
2013-07-24 02:53:00,65.5,52.5,29.51,NNW,338,3.1,3.1,63,0.00,CLR,,0.00,WeatherDisplay:10.37,2013-07-24 06:53:00,
2013-07-24 02:57:00,65.5,52.5,29.51,NW,315,2.3,2.3,63,0.00,CLR,,0.00,WeatherDisplay:10.37,2013-07-24 06:57:00,
2013-07-24 02:58:00,65.5,52.5,29.51,NE,45,3.5,3.5,63,0.00,CLR,,0.00,WeatherDisplay:10.37,2013-07-24 06:58:00,
2013-07-24 02:59:00,65.3,52.4,29.51,NE,45,2.3,2.3,63,0.00,CLR,,0.00,WeatherDisplay:10.37,2013-07-24 06:59:00,
2013-07-24 03:03:00,65.3,52.8,29.51,South,180,2.3,2.3,64,0.00,CLR,,0.00,WeatherDisplay:10.37,2013-07-24 07:03:00,
2013-07-24 03:04:00,65.3,52.8,29.51,NNW,338,4.0,4.0,64,0.00,CLR,,0.00,WeatherDisplay:10.37,2013-07-24 07:04:00,
2013-07-24 03:08:00,65.1,52.6,29.51,NE,45,3.5,3.5,64,0.00,CLR,,0.00,WeatherDisplay:10.37,2013-07-24 07:08:00,
2013-07-24 03:09:00,65.1,52.6,29.51,WSW,248,1.4,0.0,64,0.00,CLR,,0.00,WeatherDisplay:10.37,2013-07-24 07:09:00,
2013-07-24 03:13:00,65.1,52.6,29.51,East,90,2.3,2.4,64,0.00,CLR,,0.00,WeatherDisplay:10.37,2013-07-24 07:13:00,
2013-07-24 03:14:00,65.1,52.6,29.51,East,90,0.0,2.4,64,0.00,CLR,,0.00,WeatherDisplay:10.37,2013-07-24 07:14:00,
2013-07-24 03:18:00,64.9,52.9,29.51,North,0,3.5,3.5,65,0.00,CLR,,0.00,WeatherDisplay:10.37,2013-07-24 07:18:00,
2013-07-24 03:19:00,64.9,52.9,29.51,NW,315,5.8,5.8,65,0.00,CLR,,0.00,WeatherDisplay:10.37,2013-07-24 07:19:00,
2013-07-24 03:23:00,64.9,53.3,29.51,NW,315,3.5,3.5,66,0.00,CLR,,0.00,WeatherDisplay:10.37,2013-07-24 07:23:00,
2013-07-24 03:24:00,64.8,52.7,29.51,North,0,2.6,2.6,65,0.00,CLR,,0.00,WeatherDisplay:10.37,2013-07-24 07:24:00,
2013-07-24 03:25:00,64.8,52.7,29.51,East,90,2.3,2.3,65,0.00,CLR,,0.00,WeatherDisplay:10.37,2013-07-24 07:25:00,
2013-07-24 03:28:00,64.6,53.0,29.51,ESE,112,2.3,2.3,66,0.00,CLR,,0.00,WeatherDisplay:10.37,2013-07-24 07:28:00,
2013-07-24 03:29:00,64.6,53.0,29.51,North,0,2.3,2.3,66,0.00,CLR,,0.00,WeatherDisplay:10.37,2013-07-24 07:29:00,
2013-07-24 03:31:00,64.4,52.8,29.51,WSW,248,2.3,0.0,66,0.00,CLR,,0.00,WeatherDisplay:10.37,2013-07-24 07:31:00,
2013-07-24 03:33:00,64.4,53.2,29.51,NNW,338,2.3,2.3,67,0.00,CLR,,0.00,WeatherDisplay:10.37,2013-07-24 07:33:00,
2013-07-24 03:34:00,64.4,53.2,29.51,NNW,338,2.3,2.3,67,0.00,CLR,,0.00,WeatherDisplay:10.37,2013-07-24 07:34:00,
2013-07-24 03:36:00,64.4,53.2,29.51,NNE,22,2.3,2.3,67,0.00,CLR,,0.00,WeatherDisplay:10.37,2013-07-24 07:36:00,
2013-07-24 03:38:00,64.2,53.4,29.51,ENE,68,3.5,3.5,68,0.00,CLR,,0.00,WeatherDisplay:10.37,2013-07-24 07:38:00,
2013-07-24 03:39:00,64.2,53.4,29.51,NNE,22,3.5,3.5,68,0.00,CLR,,0.00,WeatherDisplay:10.37,2013-07-24 07:39:00,
2013-07-24 03:40:00,64.0,53.3,29.51,East,90,2.3,2.3,68,0.00,CLR,,0.00,WeatherDisplay:10.37,2013-07-24 07:40:00,
2013-07-24 03:42:00,64.0,53.3,29.51,NE,45,1.2,0.0,68,0.00,CLR,,0.00,WeatherDisplay:10.37,2013-07-24 07:42:00,
2013-07-24 03:44:00,64.0,53.3,29.51,NW,315,0.0,0.0,68,0.00,CLR,,0.00,WeatherDisplay:10.37,2013-07-24 07:44:00,
2013-07-24 03:45:00,64.0,53.3,29.51,ESE,112,2.3,2.3,68,0.00,CLR,,0.00,WeatherDisplay:10.37,2013-07-24 07:45:00,
2013-07-24 03:47:00,64.0,53.7,29.51,ESE,112,1.2,1.4,69,0.00,CLR,,0.00,WeatherDisplay:10.37,2013-07-24 07:47:00,
2013-07-24 03:49:00,64.0,53.7,29.51,ENE,68,3.5,0.0,69,0.00,CLR,,0.00,WeatherDisplay:10.37,2013-07-24 07:49:00,
2013-07-24 03:50:00,64.0,53.7,29.51,East,90,3.5,3.5,69,0.00,CLR,,0.00,WeatherDisplay:10.37,2013-07-24 07:50:00,
2013-07-24 03:53:00,64.0,53.7,29.51,NNW,338,4.9,4.9,69,0.00,CLR,,0.00,WeatherDisplay:10.37,2013-07-24 07:53:00,
2013-07-24 03:54:00,64.0,53.7,29.51,ENE,68,4.6,0.0,69,0.00,CLR,,0.00,WeatherDisplay:10.37,2013-07-24 07:54:00,
2013-07-24 03:55:00,64.0,54.1,29.51,ENE,68,0.0,0.0,70,0.00,CLR,,0.00,WeatherDisplay:10.37,2013-07-24 07:55:00,
2013-07-24 03:58:00,63.9,53.9,29.51,East,90,4.6,4.6,70,0.00,CLR,,0.00,WeatherDisplay:10.37,2013-07-24 07:58:00,
2013-07-24 03:59:00,63.9,53.9,29.51,NE,45,1.2,0.0,70,0.00,CLR,,0.00,WeatherDisplay:10.37,2013-07-24 07:59:00,
2013-07-24 04:00:00,63.9,53.9,29.51,SSE,158,2.3,2.3,70,0.00,CLR,,0.00,WeatherDisplay:10.37,2013-07-24 08:00:00,
2013-07-24 04:03:00,63.9,53.9,29.51,SSE,158,3.5,3.5,70,0.00,CLR,,0.00,WeatherDisplay:10.37,2013-07-24 08:03:00,
2013-07-24 04:04:00,63.9,53.9,29.51,East,90,3.5,0.0,70,0.00,CLR,,0.00,WeatherDisplay:10.37,2013-07-24 08:04:00,
2013-07-24 04:05:00,63.9,53.9,29.51,ENE,68,0.0,0.0,70,0.00,CLR,,0.00,WeatherDisplay:10.37,2013-07-24 08:05:00,
2013-07-24 04:09:00,63.9,53.9,29.51,NE,45,1.2,1.2,70,0.00,CLR,,0.00,WeatherDisplay:10.37,2013-07-24 08:09:00,
2013-07-24 04:10:00,63.9,53.9,29.51,NE,45,0.0,0.9,70,0.00,CLR,,0.00,WeatherDisplay:10.37,2013-07-24 08:10:00,
2013-07-24 04:11:00,63.9,53.9,29.51,SSE,158,0.0,0.0,70,0.00,CLR,,0.00,WeatherDisplay:10.37,2013-07-24 08:11:00,
2013-07-24 04:14:00,63.7,54.1,29.51,NE,45,0.0,0.0,71,0.00,CLR,,0.00,WeatherDisplay:10.37,2013-07-24 08:14:00,
2013-07-24 04:15:00,63.7,54.1,29.51,NE,45,0.0,0.0,71,0.00,CLR,,0.00,WeatherDisplay:10.37,2013-07-24 08:15:00,
2013-07-24 04:16:00,63.7,53.7,29.51,ENE,68,2.4,0.0,70,0.00,CLR,,0.00,WeatherDisplay:10.37,2013-07-24 08:16:00,
2013-07-24 04:17:00,63.7,53.7,29.51,ESE,112,2.3,2.3,70,0.00,CLR,,0.00,WeatherDisplay:10.37,2013-07-24 08:17:00,
2013-07-24 04:19:00,63.7,54.1,29.51,NNE,22,2.0,2.0,71,0.00,CLR,,0.00,WeatherDisplay:10.37,2013-07-24 08:19:00,
2013-07-24 04:20:00,63.7,54.1,29.51,SE,135,4.7,4.7,71,0.00,CLR,,0.00,WeatherDisplay:10.37,2013-07-24 08:20:00,
2013-07-24 04:22:00,63.7,54.5,29.54,SE,135,2.3,2.3,72,0.00,CLR,,0.00,WeatherDisplay:10.37,2013-07-24 08:22:00,
2013-07-24 04:24:00,63.7,54.1,29.54,ENE,68,0.0,0.0,71,0.00,CLR,,0.00,WeatherDisplay:10.37,2013-07-24 08:24:00,
2013-07-24 04:25:00,63.7,54.1,29.54,East,90,0.0,0.0,71,0.00,CLR,,0.00,WeatherDisplay:10.37,2013-07-24 08:25:00,
2013-07-24 04:27:00,63.9,54.3,29.54,East,90,0.0,0.0,71,0.00,CLR,,0.00,WeatherDisplay:10.37,2013-07-24 08:27:00,
2013-07-24 04:29:00,63.7,54.1,29.54,ENE,68,0.0,0.0,71,0.00,CLR,,0.00,WeatherDisplay:10.37,2013-07-24 08:29:00,
2013-07-24 04:30:00,63.9,54.3,29.54,ENE,68,0.0,0.0,71,0.00,CLR,,0.00,WeatherDisplay:10.37,2013-07-24 08:30:00,
2013-07-24 04:32:00,63.7,54.1,29.54,ESE,112,0.0,0.0,71,0.00,CLR,,0.00,WeatherDisplay:10.37,2013-07-24 08:32:00,
2013-07-24 04:34:00,63.7,54.5,29.54,ESE,112,0.0,0.0,72,0.00,CLR,,0.00,WeatherDisplay:10.37,2013-07-24 08:34:00,
2013-07-24 04:35:00,63.7,54.5,29.54,NE,45,0.0,0.0,72,0.00,CLR,,0.00,WeatherDisplay:10.37,2013-07-24 08:35:00,
2013-07-24 04:36:00,63.7,54.5,29.54,NE,45,0.0,0.0,72,0.00,CLR,,0.00,WeatherDisplay:10.37,2013-07-24 08:36:00,
2013-07-24 04:37:00,63.7,54.1,29.54,NE,45,0.0,0.0,71,0.00,CLR,,0.00,WeatherDisplay:10.37,2013-07-24 08:37:00,
2013-07-24 04:38:00,63.7,54.1,29.54,NE,45,0.0,0.0,71,0.00,CLR,,0.00,WeatherDisplay:10.37,2013-07-24 08:38:00,
2013-07-24 04:39:00,63.7,54.1,29.54,NE,45,0.0,0.0,71,0.00,CLR,,0.00,WeatherDisplay:10.37,2013-07-24 08:39:00,
2013-07-24 04:41:00,63.7,54.5,29.54,ESE,112,4.6,4.6,72,0.00,CLR,,0.00,WeatherDisplay:10.37,2013-07-24 08:41:00,
2013-07-24 04:42:00,63.7,54.1,29.54,ESE,112,4.6,4.6,71,0.00,CLR,,0.00,WeatherDisplay:10.37,2013-07-24 08:42:00,
2013-07-24 04:43:00,63.7,53.7,29.54,NE,45,4.6,4.6,70,0.00,CLR,,0.00,WeatherDisplay:10.37,2013-07-24 08:43:00,
2013-07-24 04:44:00,63.7,53.7,29.54,ESE,112,4.6,4.6,70,0.00,CLR,,0.00,WeatherDisplay:10.37,2013-07-24 08:44:00,
2013-07-24 04:46:00,63.7,53.7,29.54,NNW,338,4.6,4.6,70,0.00,CLR,,0.00,WeatherDisplay:10.37,2013-07-24 08:46:00,
2013-07-24 04:47:00,63.7,53.7,29.54,NNW,338,4.6,4.6,70,0.00,CLR,,0.00,WeatherDisplay:10.37,2013-07-24 08:47:00,
2013-07-24 04:48:00,63.7,53.7,29.54,SE,135,4.6,0.0,70,0.00,CLR,,0.00,WeatherDisplay:10.37,2013-07-24 08:48:00,
2013-07-24 04:49:00,63.9,53.9,29.54,NE,45,2.3,2.3,70,0.00,CLR,,0.00,WeatherDisplay:10.37,2013-07-24 08:49:00,
2013-07-24 04:52:00,63.7,53.3,29.54,East,90,4.6,4.6,69,0.00,CLR,,0.00,WeatherDisplay:10.37,2013-07-24 08:52:00,
2013-07-24 04:53:00,63.7,53.3,29.54,NNE,22,4.6,4.6,69,0.00,CLR,,0.00,WeatherDisplay:10.37,2013-07-24 08:53:00,
2013-07-24 04:54:00,63.7,52.9,29.54,East,90,1.2,2.4,68,0.00,CLR,,0.00,WeatherDisplay:10.37,2013-07-24 08:54:00,
2013-07-24 04:57:00,63.7,52.9,29.54,East,90,2.3,2.3,68,0.00,CLR,,0.00,WeatherDisplay:10.37,2013-07-24 08:57:00,
2013-07-24 04:58:00,63.7,52.9,29.54,East,90,2.3,2.3,68,0.00,CLR,,0.00,WeatherDisplay:10.37,2013-07-24 08:58:00,
2013-07-24 05:00:00,63.7,52.9,29.54,ENE,68,3.5,3.5,68,0.00,CLR,,0.00,WeatherDisplay:10.37,2013-07-24 09:00:00,
2013-07-24 05:02:00,63.7,52.9,29.54,ESE,112,0.0,0.9,68,0.00,CLR,,0.00,WeatherDisplay:10.37,2013-07-24 09:02:00,
2013-07-24 05:03:00,63.7,52.5,29.54,ESE,112,0.0,0.9,67,0.00,CLR,,0.00,WeatherDisplay:10.37,2013-07-24 09:03:00,
2013-07-24 05:04:00,63.5,52.3,29.54,SSE,158,3.5,3.5,67,0.00,CLR,,0.00,WeatherDisplay:10.37,2013-07-24 09:04:00,
2013-07-24 05:05:00,63.5,52.3,29.54,SE,135,2.3,2.3,67,0.00,CLR,,0.00,WeatherDisplay:10.37,2013-07-24 09:05:00,
2013-07-24 05:07:00,63.5,51.5,29.54,ESE,112,4.6,4.6,65,0.00,CLR,,0.00,WeatherDisplay:10.37,2013-07-24 09:07:00,
2013-07-24 05:08:00,63.5,51.5,29.54,ESE,112,4.6,4.6,65,0.00,CLR,,0.00,WeatherDisplay:10.37,2013-07-24 09:08:00,
2013-07-24 05:09:00,63.3,50.9,29.54,North,0,4.6,4.6,64,0.00,CLR,,0.00,WeatherDisplay:10.37,2013-07-24 09:09:00,
2013-07-24 05:12:00,63.3,50.5,29.54,East,90,4.6,4.6,63,0.00,CLR,,0.00,WeatherDisplay:10.37,2013-07-24 09:12:00,
2013-07-24 05:13:00,63.3,50.9,29.54,ESE,112,4.6,4.6,64,0.00,CLR,,0.00,WeatherDisplay:10.37,2013-07-24 09:13:00,
2013-07-24 05:15:00,63.1,49.9,29.54,ESE,112,3.6,4.3,62,0.00,CLR,,0.00,WeatherDisplay:10.37,2013-07-24 09:15:00,
2013-07-24 05:18:00,63.1,49.0,29.54,NE,45,4.6,4.6,60,0.00,CLR,,0.00,WeatherDisplay:10.37,2013-07-24 09:18:00,
2013-07-24 05:19:00,63.1,49.0,29.54,NE,45,4.6,4.6,60,0.00,CLR,,0.00,WeatherDisplay:10.37,2013-07-24 09:19:00,
2013-07-24 05:20:00,63.1,49.0,29.54,NE,45,3.5,3.5,60,0.00,CLR,,0.00,WeatherDisplay:10.37,2013-07-24 09:20:00,
2013-07-24 05:23:00,63.1,49.0,29.54,East,90,2.3,2.3,60,0.00,CLR,,0.00,WeatherDisplay:10.37,2013-07-24 09:23:00,
2013-07-24 05:24:00,63.1,49.0,29.54,East,90,2.3,2.3,60,0.00,CLR,,0.00,WeatherDisplay:10.37,2013-07-24 09:24:00,
2013-07-24 05:25:00,63.1,49.0,29.54,NE,45,2.3,2.3,60,0.00,CLR,,0.00,WeatherDisplay:10.37,2013-07-24 09:25:00,
2013-07-24 05:28:00,63.0,48.4,29.54,East,90,2.3,2.3,59,0.00,CLR,,0.00,WeatherDisplay:10.37,2013-07-24 09:28:00,
2013-07-24 05:29:00,63.0,48.4,29.54,ENE,68,2.6,2.6,59,0.00,CLR,,0.00,WeatherDisplay:10.37,2013-07-24 09:29:00,
2013-07-24 05:30:00,63.0,47.9,29.54,East,90,3.6,3.6,58,0.00,CLR,,0.00,WeatherDisplay:10.37,2013-07-24 09:30:00,
2013-07-24 05:33:00,63.0,47.5,29.54,East,90,2.3,2.6,57,0.00,CLR,,0.00,WeatherDisplay:10.37,2013-07-24 09:33:00,
2013-07-24 05:34:00,63.0,47.5,29.54,East,90,4.6,4.6,57,0.00,CLR,,0.00,WeatherDisplay:10.37,2013-07-24 09:34:00,
2013-07-24 05:35:00,63.0,47.0,29.57,ENE,68,3.6,3.6,56,0.00,CLR,,0.00,WeatherDisplay:10.37,2013-07-24 09:35:00,
2013-07-24 05:38:00,63.0,47.0,29.57,ENE,68,3.6,3.6,56,0.00,CLR,,0.00,WeatherDisplay:10.37,2013-07-24 09:38:00,
2013-07-24 05:39:00,63.0,47.0,29.57,ENE,68,3.6,3.6,56,0.00,CLR,,0.00,WeatherDisplay:10.37,2013-07-24 09:39:00,
2013-07-24 05:40:00,63.0,46.5,29.57,ENE,68,3.6,3.6,55,0.00,CLR,,0.00,WeatherDisplay:10.37,2013-07-24 09:40:00,
2013-07-24 05:43:00,63.0,46.5,29.57,ENE,68,3.5,3.8,55,0.00,CLR,,0.00,WeatherDisplay:10.37,2013-07-24 09:43:00,
2013-07-24 05:44:00,63.0,46.5,29.57,East,90,3.5,3.8,55,0.00,CLR,,0.00,WeatherDisplay:10.37,2013-07-24 09:44:00,
2013-07-24 05:45:00,63.0,47.0,29.57,NNE,22,4.3,4.3,56,0.00,CLR,,0.00,WeatherDisplay:10.37,2013-07-24 09:45:00,
2013-07-24 05:46:00,62.8,46.4,29.57,ESE,112,5.9,5.9,55,0.00,CLR,,0.00,WeatherDisplay:10.37,2013-07-24 09:46:00,
2013-07-24 05:48:00,62.8,46.4,29.57,East,90,3.5,3.5,55,0.00,CLR,,0.00,WeatherDisplay:10.37,2013-07-24 09:48:00,
2013-07-24 05:49:00,62.8,46.4,29.57,ENE,68,4.6,4.6,55,0.00,CLR,,0.00,WeatherDisplay:10.37,2013-07-24 09:49:00,
2013-07-24 05:50:00,62.8,46.4,29.57,ENE,68,4.6,4.6,55,0.00,CLR,,0.00,WeatherDisplay:10.37,2013-07-24 09:50:00,
2013-07-24 05:51:00,62.8,46.4,29.57,ESE,112,1.2,1.6,55,0.00,CLR,,0.00,WeatherDisplay:10.37,2013-07-24 09:51:00,
2013-07-24 05:54:00,62.6,46.2,29.57,ENE,68,3.8,3.8,55,0.00,CLR,,0.00,WeatherDisplay:10.37,2013-07-24 09:54:00,
2013-07-24 05:55:00,62.6,46.2,29.57,ENE,68,3.8,3.8,55,0.00,CLR,,0.00,WeatherDisplay:10.37,2013-07-24 09:55:00,
2013-07-24 05:57:00,62.4,46.0,29.57,SSW,202,3.6,3.6,55,0.00,CLR,,0.00,WeatherDisplay:10.37,2013-07-24 09:57:00,
2013-07-24 05:59:00,62.4,46.0,29.57,ESE,112,6.9,6.9,55,0.00,CLR,,0.00,WeatherDisplay:10.37,2013-07-24 09:59:00,
2013-07-24 06:00:00,62.4,46.0,29.57,ENE,68,5.8,5.8,55,0.00,CLR,,0.00,WeatherDisplay:10.37,2013-07-24 10:00:00,
2013-07-24 06:02:00,62.1,45.7,29.57,ENE,68,6.9,6.9,55,0.00,CLR,,0.00,WeatherDisplay:10.37,2013-07-24 10:02:00,
2013-07-24 06:04:00,62.1,46.2,29.57,ENE,68,3.5,3.5,56,0.00,CLR,,0.00,WeatherDisplay:10.37,2013-07-24 10:04:00,
2013-07-24 06:05:00,61.9,46.0,29.57,East,90,5.6,5.6,56,0.00,CLR,,0.00,WeatherDisplay:10.37,2013-07-24 10:05:00,
2013-07-24 06:06:00,61.9,45.5,29.57,ESE,112,8.1,8.1,55,0.00,CLR,,0.00,WeatherDisplay:10.37,2013-07-24 10:06:00,
2013-07-24 06:07:00,61.9,45.0,29.57,NNE,22,8.1,8.1,54,0.00,CLR,,0.00,WeatherDisplay:10.37,2013-07-24 10:07:00,
2013-07-24 06:09:00,61.7,45.4,29.57,ENE,68,4.6,4.6,55,0.00,CLR,,0.00,WeatherDisplay:10.37,2013-07-24 10:09:00,
2013-07-24 06:10:00,61.7,45.4,29.57,East,90,4.6,4.6,55,0.00,CLR,,0.00,WeatherDisplay:10.37,2013-07-24 10:10:00,
2013-07-24 06:11:00,61.7,45.4,29.57,NNE,22,4.6,4.6,55,0.00,CLR,,0.00,WeatherDisplay:10.37,2013-07-24 10:11:00,
2013-07-24 06:12:00,61.7,45.4,29.57,North,0,5.8,5.8,55,0.00,CLR,,0.00,WeatherDisplay:10.37,2013-07-24 10:12:00,
2013-07-24 06:15:00,61.5,45.2,29.57,NW,315,3.5,3.5,55,0.00,CLR,,0.00,WeatherDisplay:10.37,2013-07-24 10:15:00,
2013-07-24 06:17:00,61.5,45.7,29.57,ESE,112,4.6,4.6,56,0.00,CLR,,0.00,WeatherDisplay:10.37,2013-07-24 10:17:00,
2013-07-24 06:18:00,61.5,45.7,29.57,East,90,3.5,3.5,56,0.00,CLR,,0.00,WeatherDisplay:10.37,2013-07-24 10:18:00,
2013-07-24 06:20:00,61.5,45.7,29.57,East,90,4.6,4.6,56,0.00,CLR,,0.00,WeatherDisplay:10.37,2013-07-24 10:20:00,
2013-07-24 06:21:00,61.3,45.5,29.57,ENE,68,3.5,3.5,56,0.00,CLR,,0.00,WeatherDisplay:10.37,2013-07-24 10:21:00,
2013-07-24 06:22:00,61.3,45.5,29.57,ENE,68,5.8,5.8,56,0.00,CLR,,0.00,WeatherDisplay:10.37,2013-07-24 10:22:00,
2013-07-24 06:23:00,61.3,45.5,29.57,SE,135,2.3,2.3,56,0.00,CLR,,0.00,WeatherDisplay:10.37,2013-07-24 10:23:00,
2013-07-24 06:25:00,61.3,46.0,29.57,East,90,2.3,2.3,57,0.00,CLR,,0.00,WeatherDisplay:10.37,2013-07-24 10:25:00,
2013-07-24 06:26:00,61.3,46.0,29.57,NE,45,2.3,2.3,57,0.00,CLR,,0.00,WeatherDisplay:10.37,2013-07-24 10:26:00,
2013-07-24 06:27:00,61.3,45.5,29.57,ESE,112,5.8,5.8,56,0.00,CLR,,0.00,WeatherDisplay:10.37,2013-07-24 10:27:00,
2013-07-24 06:28:00,61.3,46.0,29.57,NE,45,5.6,5.6,57,0.00,CLR,,0.00,WeatherDisplay:10.37,2013-07-24 10:28:00,
2013-07-24 06:30:00,61.3,46.0,29.57,NNE,22,2.4,2.4,57,0.00,CLR,,0.00,WeatherDisplay:10.37,2013-07-24 10:30:00,
2013-07-24 06:32:00,61.3,46.0,29.57,SSE,158,2.3,2.3,57,0.00,CLR,,0.00,WeatherDisplay:10.37,2013-07-24 10:32:00,
2013-07-24 06:33:00,61.2,45.8,29.57,NNE,22,5.8,5.8,57,0.00,CLR,,0.00,WeatherDisplay:10.37,2013-07-24 10:33:00,
2013-07-24 06:35:00,61.0,45.2,29.60,ESE,112,5.8,5.8,56,0.00,CLR,,0.00,WeatherDisplay:10.37,2013-07-24 10:35:00,
2013-07-24 06:37:00,61.0,45.2,29.60,ENE,68,5.8,5.8,56,0.00,CLR,,0.00,WeatherDisplay:10.37,2013-07-24 10:37:00,
2013-07-24 06:39:00,61.0,44.2,29.60,ESE,112,5.8,5.8,54,0.00,CLR,,0.00,WeatherDisplay:10.37,2013-07-24 10:39:00,
2013-07-24 06:41:00,60.8,44.0,29.60,NW,315,4.6,4.6,54,0.00,CLR,,0.00,WeatherDisplay:10.37,2013-07-24 10:41:00,
2013-07-24 06:42:00,60.8,44.0,29.60,ENE,68,3.5,3.5,54,0.00,CLR,,0.00,WeatherDisplay:10.37,2013-07-24 10:42:00,
2013-07-24 06:44:00,60.6,44.4,29.60,ENE,68,5.8,5.8,55,0.00,CLR,,0.00,WeatherDisplay:10.37,2013-07-24 10:44:00,
2013-07-24 06:46:00,60.6,44.4,29.60,NE,45,5.8,5.8,55,0.00,CLR,,0.00,WeatherDisplay:10.37,2013-07-24 10:46:00,
2013-07-24 06:47:00,60.6,44.4,29.60,NNE,22,4.6,4.6,55,0.00,CLR,,0.00,WeatherDisplay:10.37,2013-07-24 10:47:00,
2013-07-24 06:49:00,60.6,44.8,29.60,East,90,6.2,6.2,56,0.00,CLR,,0.00,WeatherDisplay:10.37,2013-07-24 10:49:00,
2013-07-24 06:51:00,60.4,44.7,29.63,NNE,22,4.6,4.6,56,0.00,CLR,,0.00,WeatherDisplay:10.37,2013-07-24 10:51:00,
2013-07-24 06:52:00,60.4,44.7,29.63,NE,45,4.6,4.6,56,0.00,CLR,,0.00,WeatherDisplay:10.37,2013-07-24 10:52:00,
2013-07-24 06:54:00,60.3,44.0,29.63,NE,45,10.4,10.4,55,0.00,CLR,,0.00,WeatherDisplay:10.37,2013-07-24 10:54:00,
2013-07-24 06:57:00,60.3,44.0,29.63,East,90,5.8,5.8,55,0.00,CLR,,0.00,WeatherDisplay:10.37,2013-07-24 10:57:00,
2013-07-24 06:59:00,60.3,44.0,29.63,North,0,7.1,7.1,55,0.00,CLR,,0.00,WeatherDisplay:10.37,2013-07-24 10:59:00,
2013-07-24 07:02:00,60.3,44.5,29.63,NNE,22,2.3,2.3,56,0.00,CLR,,0.00,WeatherDisplay:10.37,2013-07-24 11:02:00,
2013-07-24 07:03:00,60.3,44.5,29.63,North,0,4.6,4.6,56,0.00,CLR,,0.00,WeatherDisplay:10.37,2013-07-24 11:03:00,
2013-07-24 07:04:00,60.3,44.5,29.63,NE,45,5.8,5.8,56,0.00,CLR,,0.00,WeatherDisplay:10.37,2013-07-24 11:04:00,
2013-07-24 07:07:00,60.1,44.3,29.63,ESE,112,3.5,3.5,56,0.00,CLR,,0.00,WeatherDisplay:10.37,2013-07-24 11:07:00,
2013-07-24 07:08:00,60.1,44.3,29.63,ENE,68,3.5,3.5,56,0.00,CLR,,0.00,WeatherDisplay:10.37,2013-07-24 11:08:00,
2013-07-24 07:10:00,60.1,43.9,29.63,NNW,338,5.8,5.8,55,0.00,CLR,,0.00,WeatherDisplay:10.37,2013-07-24 11:10:00,
2013-07-24 07:12:00,60.1,43.9,29.63,ENE,68,5.8,5.8,55,0.00,CLR,,0.00,WeatherDisplay:10.37,2013-07-24 11:12:00,
2013-07-24 07:13:00,60.1,43.9,29.63,East,90,4.6,4.6,55,0.00,CLR,,0.00,WeatherDisplay:10.37,2013-07-24 11:13:00,
2013-07-24 07:15:00,60.1,43.9,29.63,North,0,6.9,6.9,55,0.00,CLR,,0.00,WeatherDisplay:10.37,2013-07-24 11:15:00,
2013-07-24 07:17:00,60.1,44.3,29.63,NE,45,3.3,3.3,56,0.00,CLR,,0.00,WeatherDisplay:10.37,2013-07-24 11:17:00,
2013-07-24 07:18:00,60.1,44.3,29.63,ENE,68,3.5,3.5,56,0.00,CLR,,0.00,WeatherDisplay:10.37,2013-07-24 11:18:00,
2013-07-24 07:19:00,60.1,44.3,29.63,NE,45,2.3,2.3,56,0.00,CLR,,0.00,WeatherDisplay:10.37,2013-07-24 11:19:00,
2013-07-24 07:20:00,60.1,44.3,29.63,East,90,2.3,2.3,56,0.00,CLR,,0.00,WeatherDisplay:10.37,2013-07-24 11:20:00,
2013-07-24 07:22:00,60.3,44.5,29.63,East,90,3.8,3.8,56,0.00,CLR,,0.00,WeatherDisplay:10.37,2013-07-24 11:22:00,
2013-07-24 07:23:00,60.3,44.0,29.63,East,90,3.5,3.8,55,0.00,CLR,,0.00,WeatherDisplay:10.37,2013-07-24 11:23:00,
2013-07-24 07:24:00,60.3,44.0,29.63,ENE,68,4.6,4.6,55,0.00,CLR,,0.00,WeatherDisplay:10.37,2013-07-24 11:24:00,
2013-07-24 07:25:00,60.3,44.0,29.63,East,90,3.5,3.5,55,0.00,CLR,,0.00,WeatherDisplay:10.37,2013-07-24 11:25:00,
2013-07-24 07:28:00,60.3,44.0,29.63,ENE,68,6.9,6.9,55,0.00,CLR,,0.00,WeatherDisplay:10.37,2013-07-24 11:28:00,
2013-07-24 07:29:00,60.1,43.4,29.63,NNE,22,7.4,7.4,54,0.00,CLR,,0.00,WeatherDisplay:10.37,2013-07-24 11:29:00,
2013-07-24 07:31:00,60.1,43.9,29.63,ENE,68,6.9,6.9,55,0.00,CLR,,0.00,WeatherDisplay:10.37,2013-07-24 11:31:00,
2013-07-24 07:33:00,60.1,43.4,29.63,SE,135,3.5,3.5,54,0.00,CLR,,0.00,WeatherDisplay:10.37,2013-07-24 11:33:00,
2013-07-24 07:34:00,60.1,43.4,29.63,East,90,2.3,2.3,54,0.00,CLR,,0.00,WeatherDisplay:10.37,2013-07-24 11:34:00,
2013-07-24 07:36:00,60.3,44.0,29.66,ENE,68,2.9,2.9,55,0.00,CLR,,0.00,WeatherDisplay:10.37,2013-07-24 11:36:00,
2013-07-24 07:38:00,60.3,44.0,29.66,ESE,112,6.9,6.9,55,0.00,CLR,,0.00,WeatherDisplay:10.37,2013-07-24 11:38:00,
2013-07-24 07:39:00,60.3,44.0,29.66,NNE,22,5.8,5.8,55,0.00,CLR,,0.00,WeatherDisplay:10.37,2013-07-24 11:39:00,
2013-07-24 07:42:00,60.4,43.7,29.66,East,90,8.1,8.1,54,0.00,CLR,,0.00,WeatherDisplay:10.37,2013-07-24 11:42:00,
2013-07-24 07:43:00,60.4,44.2,29.66,East,90,3.6,3.6,55,0.00,CLR,,0.00,WeatherDisplay:10.37,2013-07-24 11:43:00,
2013-07-24 07:44:00,60.4,44.2,29.66,East,90,5.8,5.8,55,0.00,CLR,,0.00,WeatherDisplay:10.37,2013-07-24 11:44:00,
2013-07-24 07:47:00,60.4,43.7,29.66,South,180,4.6,4.6,54,0.00,CLR,,0.00,WeatherDisplay:10.37,2013-07-24 11:47:00,
2013-07-24 07:48:00,60.4,43.7,29.66,ENE,68,10.4,10.4,54,0.00,CLR,,0.00,WeatherDisplay:10.37,2013-07-24 11:48:00,
2013-07-24 07:49:00,60.4,43.2,29.66,East,90,8.1,8.1,53,0.00,CLR,,0.00,WeatherDisplay:10.37,2013-07-24 11:49:00,
2013-07-24 07:50:00,60.4,43.2,29.66,East,90,8.1,8.1,53,0.00,CLR,,0.00,WeatherDisplay:10.37,2013-07-24 11:50:00,
2013-07-24 07:52:00,60.6,43.9,29.66,WSW,248,4.9,4.9,54,0.00,CLR,,0.00,WeatherDisplay:10.37,2013-07-24 11:52:00,
2013-07-24 07:54:00,60.4,43.2,29.66,NE,45,5.8,5.8,53,0.00,CLR,,0.00,WeatherDisplay:10.37,2013-07-24 11:54:00,
2013-07-24 07:55:00,60.4,42.7,29.66,East,90,4.6,4.6,52,0.00,CLR,,0.00,WeatherDisplay:10.37,2013-07-24 11:55:00,
2013-07-24 07:58:00,60.4,43.2,29.66,WNW,292,5.8,5.8,53,0.00,CLR,,0.00,WeatherDisplay:10.37,2013-07-24 11:58:00,
2013-07-24 07:59:00,60.3,43.1,29.66,North,0,4.6,4.6,53,0.00,CLR,,0.00,WeatherDisplay:10.37,2013-07-24 11:59:00,
2013-07-24 08:00:00,60.3,43.1,29.66,East,90,4.6,4.6,53,0.00,CLR,,0.00,WeatherDisplay:10.37,2013-07-24 12:00:00,
2013-07-24 08:02:00,60.1,42.9,29.66,ESE,112,9.2,9.2,53,0.00,CLR,,0.00,WeatherDisplay:10.37,2013-07-24 12:02:00,
2013-07-24 08:03:00,60.1,42.9,29.66,ESE,112,5.8,5.8,53,0.00,CLR,,0.00,WeatherDisplay:10.37,2013-07-24 12:03:00,
2013-07-24 08:04:00,60.1,42.9,29.66,ESE,112,2.3,2.6,53,0.00,CLR,,0.00,WeatherDisplay:10.37,2013-07-24 12:04:00,
2013-07-24 08:05:00,60.1,42.9,29.69,ESE,112,4.3,4.3,53,0.00,CLR,,0.00,WeatherDisplay:10.37,2013-07-24 12:05:00,
2013-07-24 08:07:00,60.1,42.9,29.69,NE,45,8.1,8.1,53,0.00,CLR,,0.00,WeatherDisplay:10.37,2013-07-24 12:07:00,
2013-07-24 08:08:00,60.1,43.4,29.69,WNW,292,6.9,6.9,54,0.00,CLR,,0.00,WeatherDisplay:10.37,2013-07-24 12:08:00,
2013-07-24 08:09:00,60.1,42.9,29.69,NNE,22,6.9,6.9,53,0.00,CLR,,0.00,WeatherDisplay:10.37,2013-07-24 12:09:00,
2013-07-24 08:10:00,60.1,42.9,29.69,ENE,68,4.6,4.6,53,0.00,CLR,,0.00,WeatherDisplay:10.37,2013-07-24 12:10:00,
2013-07-24 08:12:00,60.3,43.5,29.69,NE,45,2.6,2.6,54,0.00,CLR,,0.00,WeatherDisplay:10.37,2013-07-24 12:12:00,
2013-07-24 08:13:00,60.4,43.7,29.69,NNW,338,2.3,2.3,54,0.00,CLR,,0.00,WeatherDisplay:10.37,2013-07-24 12:13:00,
2013-07-24 08:14:00,60.4,43.7,29.69,NE,45,3.5,3.5,54,0.00,CLR,,0.00,WeatherDisplay:10.37,2013-07-24 12:14:00,
2013-07-24 08:15:00,60.4,43.7,29.69,NE,45,5.8,5.8,54,0.00,CLR,,0.00,WeatherDisplay:10.37,2013-07-24 12:15:00,
2013-07-24 08:17:00,60.6,43.4,29.69,NNE,22,3.5,3.5,53,0.00,CLR,,0.00,WeatherDisplay:10.37,2013-07-24 12:17:00,
2013-07-24 08:18:00,60.6,43.4,29.69,ENE,68,3.5,3.5,53,0.00,CLR,,0.00,WeatherDisplay:10.37,2013-07-24 12:18:00,
2013-07-24 08:19:00,60.6,43.4,29.69,ENE,68,4.6,4.6,53,0.00,CLR,,0.00,WeatherDisplay:10.37,2013-07-24 12:19:00,
2013-07-24 08:21:00,60.8,43.1,29.69,ESE,112,6.0,6.0,52,0.00,CLR,,0.00,WeatherDisplay:10.37,2013-07-24 12:21:00,
2013-07-24 08:22:00,60.6,42.9,29.69,North,0,6.9,6.9,52,0.00,CLR,,0.00,WeatherDisplay:10.37,2013-07-24 12:22:00,
2013-07-24 08:23:00,60.6,42.9,29.69,NE,45,6.9,6.9,52,0.00,CLR,,0.00,WeatherDisplay:10.37,2013-07-24 12:23:00,
2013-07-24 08:25:00,60.8,43.1,29.69,East,90,2.3,2.3,52,0.00,CLR,,0.00,WeatherDisplay:10.37,2013-07-24 12:25:00,
2013-07-24 08:26:00,61.0,43.2,29.69,North,0,3.5,3.5,52,0.00,CLR,,0.00,WeatherDisplay:10.37,2013-07-24 12:26:00,
2013-07-24 08:27:00,61.0,42.7,29.69,ENE,68,4.6,4.6,51,0.00,CLR,,0.00,WeatherDisplay:10.37,2013-07-24 12:27:00,
2013-07-24 08:28:00,61.0,42.7,29.69,ENE,68,4.6,4.6,51,0.00,CLR,,0.00,WeatherDisplay:10.37,2013-07-24 12:28:00,
2013-07-24 08:30:00,61.3,43.6,29.69,NNE,22,5.9,5.9,52,0.00,CLR,,0.00,WeatherDisplay:10.37,2013-07-24 12:30:00,
2013-07-24 08:31:00,61.3,43.0,29.69,ESE,112,5.8,5.8,51,0.00,CLR,,0.00,WeatherDisplay:10.37,2013-07-24 12:31:00,
2013-07-24 08:32:00,61.3,43.6,29.69,ENE,68,3.5,3.5,52,0.00,CLR,,0.00,WeatherDisplay:10.37,2013-07-24 12:32:00,
2013-07-24 08:34:00,61.2,42.9,29.69,NE,45,5.8,5.8,51,0.00,CLR,,0.00,WeatherDisplay:10.37,2013-07-24 12:34:00,
2013-07-24 08:35:00,61.2,42.9,29.72,NE,45,6.9,6.9,51,0.00,CLR,,0.00,WeatherDisplay:10.37,2013-07-24 12:35:00,
2013-07-24 08:37:00,61.3,43.0,29.72,NNE,22,2.3,2.3,51,0.00,CLR,,0.00,WeatherDisplay:10.37,2013-07-24 12:37:00,
2013-07-24 08:39:00,61.3,43.6,29.72,South,180,4.6,4.6,52,0.00,CLR,,0.00,WeatherDisplay:10.37,2013-07-24 12:39:00,
2013-07-24 08:40:00,61.3,43.0,29.72,ESE,112,2.4,2.4,51,0.00,CLR,,0.00,WeatherDisplay:10.37,2013-07-24 12:40:00,
2013-07-24 08:42:00,61.3,43.0,29.72,NNE,22,2.3,2.3,51,0.00,CLR,,0.00,WeatherDisplay:10.37,2013-07-24 12:42:00,
2013-07-24 08:43:00,61.3,43.0,29.72,ESE,112,3.5,3.5,51,0.00,CLR,,0.00,WeatherDisplay:10.37,2013-07-24 12:43:00,
2013-07-24 08:44:00,61.3,43.0,29.72,NE,45,3.5,3.5,51,0.00,CLR,,0.00,WeatherDisplay:10.37,2013-07-24 12:44:00,
2013-07-24 08:46:00,61.3,43.6,29.72,East,90,1.2,0.0,52,0.00,CLR,,0.00,WeatherDisplay:10.37,2013-07-24 12:46:00,
2013-07-24 08:48:00,61.5,43.7,29.72,ENE,68,4.6,4.6,52,0.00,CLR,,0.00,WeatherDisplay:10.37,2013-07-24 12:48:00,
2013-07-24 08:49:00,61.3,43.6,29.72,ESE,112,6.9,6.9,52,0.00,CLR,,0.00,WeatherDisplay:10.37,2013-07-24 12:49:00,
2013-07-24 08:51:00,61.0,42.7,29.72,NNE,22,4.6,4.6,51,0.00,CLR,,0.00,WeatherDisplay:10.37,2013-07-24 12:51:00,
2013-07-24 08:53:00,61.0,42.7,29.72,East,90,2.3,2.3,51,0.00,CLR,,0.00,WeatherDisplay:10.37,2013-07-24 12:53:00,
2013-07-24 08:54:00,61.0,43.2,29.72,ESE,112,4.9,4.9,52,0.00,CLR,,0.00,WeatherDisplay:10.37,2013-07-24 12:54:00,
2013-07-24 08:57:00,60.6,42.9,29.72,East,90,7.1,7.1,52,0.00,CLR,,0.00,WeatherDisplay:10.37,2013-07-24 12:57:00,
2013-07-24 08:58:00,60.6,42.9,29.72,ENE,68,6.9,6.9,52,0.00,CLR,,0.00,WeatherDisplay:10.37,2013-07-24 12:58:00,
2013-07-24 08:59:00,60.6,42.9,29.72,NE,45,4.6,4.6,52,0.00,CLR,,0.00,WeatherDisplay:10.37,2013-07-24 12:59:00,
2013-07-24 09:02:00,60.6,43.4,29.72,NNW,338,3.5,3.5,53,0.00,CLR,,0.00,WeatherDisplay:10.37,2013-07-24 13:02:00,
2013-07-24 09:03:00,60.6,43.4,29.72,NNW,338,4.0,4.0,53,0.00,CLR,,0.00,WeatherDisplay:10.37,2013-07-24 13:03:00,
2013-07-24 09:04:00,60.6,43.4,29.72,NNE,22,4.6,4.6,53,0.00,CLR,,0.00,WeatherDisplay:10.37,2013-07-24 13:04:00,
2013-07-24 09:07:00,60.6,43.4,29.72,NNE,22,3.5,3.5,53,0.00,CLR,,0.00,WeatherDisplay:10.37,2013-07-24 13:07:00,
2013-07-24 09:08:00,60.6,43.4,29.72,ENE,68,3.5,3.5,53,0.00,CLR,,0.00,WeatherDisplay:10.37,2013-07-24 13:08:00,
2013-07-24 09:09:00,60.6,43.9,29.72,NNW,338,2.3,2.3,54,0.00,CLR,,0.00,WeatherDisplay:10.37,2013-07-24 13:09:00,
2013-07-24 09:12:00,60.8,43.6,29.72,East,90,3.5,3.5,53,0.00,CLR,,0.00,WeatherDisplay:10.37,2013-07-24 13:12:00,
2013-07-24 09:13:00,60.8,44.0,29.72,East,90,3.5,3.5,54,0.00,CLR,,0.00,WeatherDisplay:10.37,2013-07-24 13:13:00,
2013-07-24 09:14:00,60.8,43.6,29.72,ESE,112,3.5,3.5,53,0.00,CLR,,0.00,WeatherDisplay:10.37,2013-07-24 13:14:00,
2013-07-24 09:17:00,61.0,43.7,29.72,ENE,68,5.8,5.8,53,0.00,CLR,,0.00,WeatherDisplay:10.37,2013-07-24 13:17:00,
2013-07-24 09:19:00,61.0,43.7,29.72,ENE,68,3.5,3.5,53,0.00,CLR,,0.00,WeatherDisplay:10.37,2013-07-24 13:19:00,
2013-07-24 09:20:00,61.0,43.7,29.72,ENE,68,4.6,4.6,53,0.00,CLR,,0.00,WeatherDisplay:10.37,2013-07-24 13:20:00,
2013-07-24 09:22:00,61.2,43.4,29.72,North,0,3.5,3.5,52,0.00,CLR,,0.00,WeatherDisplay:10.37,2013-07-24 13:22:00,
2013-07-24 09:24:00,61.3,43.6,29.72,NNE,22,2.3,2.3,52,0.00,CLR,,0.00,WeatherDisplay:10.37,2013-07-24 13:24:00,
2013-07-24 09:25:00,61.3,43.6,29.72,East,90,3.5,3.5,52,0.00,CLR,,0.00,WeatherDisplay:10.37,2013-07-24 13:25:00,
2013-07-24 09:27:00,61.5,43.7,29.72,East,90,2.3,2.3,52,0.00,CLR,,0.00,WeatherDisplay:10.37,2013-07-24 13:27:00,
2013-07-24 09:29:00,61.7,43.9,29.72,ENE,68,3.5,3.5,52,0.00,CLR,,0.00,WeatherDisplay:10.37,2013-07-24 13:29:00,
2013-07-24 09:30:00,61.3,42.5,29.72,NE,45,8.1,8.1,50,0.00,CLR,,0.00,WeatherDisplay:10.37,2013-07-24 13:30:00,
2013-07-24 09:31:00,61.5,42.7,29.72,SSE,158,4.6,4.6,50,0.00,CLR,,0.00,WeatherDisplay:10.37,2013-07-24 13:31:00,
2013-07-24 09:33:00,61.9,43.0,29.72,NE,45,2.6,2.6,50,0.00,CLR,,0.00,WeatherDisplay:10.37,2013-07-24 13:33:00,
2013-07-24 09:34:00,61.9,43.0,29.72,ENE,68,4.6,4.6,50,0.00,CLR,,0.00,WeatherDisplay:10.37,2013-07-24 13:34:00,
2013-07-24 09:35:00,62.1,43.2,29.75,ENE,68,4.9,4.9,50,0.00,CLR,,0.00,WeatherDisplay:10.37,2013-07-24 13:35:00,
2013-07-24 09:36:00,61.9,43.0,29.75,ESE,112,6.9,6.9,50,0.00,CLR,,0.00,WeatherDisplay:10.37,2013-07-24 13:36:00,
2013-07-24 09:38:00,61.7,42.3,29.75,East,90,5.8,5.8,49,0.00,CLR,,0.00,WeatherDisplay:10.37,2013-07-24 13:38:00,
2013-07-24 09:39:00,61.7,42.3,29.75,ENE,68,3.5,3.5,49,0.00,CLR,,0.00,WeatherDisplay:10.37,2013-07-24 13:39:00,
2013-07-24 09:40:00,61.9,43.0,29.75,ENE,68,3.5,3.5,50,0.00,CLR,,0.00,WeatherDisplay:10.37,2013-07-24 13:40:00,
2013-07-24 09:42:00,61.9,43.0,29.75,East,90,2.3,2.3,50,0.00,CLR,,0.00,WeatherDisplay:10.37,2013-07-24 13:42:00,
2013-07-24 09:44:00,61.9,43.0,29.75,SE,135,4.6,4.6,50,0.00,CLR,,0.00,WeatherDisplay:10.37,2013-07-24 13:44:00,
2013-07-24 09:46:00,62.1,43.2,29.75,ENE,68,1.2,0.0,50,0.00,CLR,,0.00,WeatherDisplay:10.37,2013-07-24 13:46:00,
2013-07-24 09:48:00,62.1,43.7,29.75,NNE,22,3.8,3.8,51,0.00,CLR,,0.00,WeatherDisplay:10.37,2013-07-24 13:48:00,
2013-07-24 09:49:00,61.9,43.0,29.75,East,90,3.5,3.5,50,0.00,CLR,,0.00,WeatherDisplay:10.37,2013-07-24 13:49:00,
2013-07-24 09:50:00,61.9,43.0,29.75,ENE,68,6.9,6.9,50,0.00,CLR,,0.00,WeatherDisplay:10.37,2013-07-24 13:50:00,
2013-07-24 09:52:00,62.1,43.2,29.75,North,0,3.5,3.5,50,0.00,CLR,,0.00,WeatherDisplay:10.37,2013-07-24 13:52:00,
2013-07-24 09:53:00,62.2,43.4,29.75,ESE,112,3.5,3.5,50,0.00,CLR,,0.00,WeatherDisplay:10.37,2013-07-24 13:53:00,
2013-07-24 09:54:00,62.4,43.0,29.75,ESE,112,3.5,3.5,49,0.00,CLR,,0.00,WeatherDisplay:10.37,2013-07-24 13:54:00,
2013-07-24 09:55:00,62.4,43.5,29.75,ENE,68,2.3,2.9,50,0.00,CLR,,0.00,WeatherDisplay:10.37,2013-07-24 13:55:00,
2013-07-24 09:57:00,62.2,42.3,29.75,East,90,4.6,4.6,48,0.00,CLR,,0.00,WeatherDisplay:10.37,2013-07-24 13:57:00,
2013-07-24 09:58:00,62.2,42.3,29.75,ENE,68,3.1,3.1,48,0.00,CLR,,0.00,WeatherDisplay:10.37,2013-07-24 13:58:00,
2013-07-24 09:59:00,62.2,42.3,29.75,ESE,112,3.5,3.5,48,0.00,CLR,,0.00,WeatherDisplay:10.37,2013-07-24 13:59:00,
2013-07-24 10:00:00,62.2,42.8,29.75,ESE,112,5.8,5.8,49,0.00,CLR,,0.00,WeatherDisplay:10.37,2013-07-24 14:00:00,
2013-07-24 10:02:00,62.1,42.7,29.75,ENE,68,6.2,6.2,49,0.00,CLR,,0.00,WeatherDisplay:10.37,2013-07-24 14:02:00,
2013-07-24 10:03:00,62.1,42.7,29.75,NE,45,5.8,5.8,49,0.00,CLR,,0.00,WeatherDisplay:10.37,2013-07-24 14:03:00,
2013-07-24 10:04:00,62.2,42.8,29.75,SSW,202,5.6,5.6,49,0.00,CLR,,0.00,WeatherDisplay:10.37,2013-07-24 14:04:00,
2013-07-24 10:05:00,62.2,42.8,29.75,NE,45,5.8,5.8,49,0.00,CLR,,0.00,WeatherDisplay:10.37,2013-07-24 14:05:00,
2013-07-24 10:08:00,62.4,43.5,29.75,ENE,68,1.2,1.2,50,0.00,CLR,,0.00,WeatherDisplay:10.37,2013-07-24 14:08:00,
2013-07-24 10:09:00,62.6,43.2,29.75,NE,45,4.7,4.7,49,0.00,CLR,,0.00,WeatherDisplay:10.37,2013-07-24 14:09:00,
2013-07-24 10:10:00,62.8,43.3,29.75,ENE,68,4.6,4.6,49,0.00,CLR,,0.00,WeatherDisplay:10.37,2013-07-24 14:10:00,
2013-07-24 10:11:00,62.8,43.3,29.75,ENE,68,4.6,4.6,49,0.00,CLR,,0.00,WeatherDisplay:10.37,2013-07-24 14:11:00,
2013-07-24 10:13:00,62.8,43.3,29.75,East,90,3.5,3.6,49,0.00,CLR,,0.00,WeatherDisplay:10.37,2013-07-24 14:13:00,
2013-07-24 10:15:00,62.8,43.3,29.75,NE,45,3.3,3.3,49,0.00,CLR,,0.00,WeatherDisplay:10.37,2013-07-24 14:15:00,
2013-07-24 10:16:00,63.0,43.0,29.75,ESE,112,3.5,3.5,48,0.00,CLR,,0.00,WeatherDisplay:10.37,2013-07-24 14:16:00,
2013-07-24 10:18:00,63.0,43.5,29.75,ESE,112,2.3,2.3,49,0.00,CLR,,0.00,WeatherDisplay:10.37,2013-07-24 14:18:00,
2013-07-24 10:20:00,62.8,42.8,29.75,SSE,158,3.5,3.5,48,0.00,CLR,,0.00,WeatherDisplay:10.37,2013-07-24 14:20:00,
2013-07-24 10:21:00,62.8,42.8,29.75,NNE,22,3.5,3.5,48,0.00,CLR,,0.00,WeatherDisplay:10.37,2013-07-24 14:21:00,
2013-07-24 10:22:00,63.0,43.5,29.75,ENE,68,2.4,2.4,49,0.00,CLR,,0.00,WeatherDisplay:10.37,2013-07-24 14:22:00,
2013-07-24 10:23:00,62.8,42.8,29.75,ESE,112,3.5,3.5,48,0.00,CLR,,0.00,WeatherDisplay:10.37,2013-07-24 14:23:00,
2013-07-24 10:25:00,62.8,42.2,29.75,ESE,112,2.3,2.3,47,0.00,CLR,,0.00,WeatherDisplay:10.37,2013-07-24 14:25:00,
2013-07-24 10:26:00,62.4,41.9,29.75,East,90,10.4,10.4,47,0.00,CLR,,0.00,WeatherDisplay:10.37,2013-07-24 14:26:00,
2013-07-24 10:27:00,62.4,41.9,29.75,ENE,68,10.4,10.4,47,0.00,CLR,,0.00,WeatherDisplay:10.37,2013-07-24 14:27:00,
2013-07-24 10:28:00,62.6,42.1,29.75,ESE,112,6.9,6.9,47,0.00,CLR,,0.00,WeatherDisplay:10.37,2013-07-24 14:28:00,
2013-07-24 10:29:00,62.6,42.1,29.75,ESE,112,3.5,3.5,47,0.00,CLR,,0.00,WeatherDisplay:10.37,2013-07-24 14:29:00,
2013-07-24 10:30:00,62.6,42.6,29.75,NE,45,4.6,4.6,48,0.00,CLR,,0.00,WeatherDisplay:10.37,2013-07-24 14:30:00,
2013-07-24 10:31:00,62.6,42.6,29.75,East,90,2.3,2.3,48,0.00,CLR,,0.00,WeatherDisplay:10.37,2013-07-24 14:31:00,
2013-07-24 10:32:00,62.6,42.1,29.75,NE,45,5.4,5.4,47,0.00,CLR,,0.00,WeatherDisplay:10.37,2013-07-24 14:32:00,
2013-07-24 10:33:00,62.4,42.5,29.75,East,90,8.1,8.1,48,0.00,CLR,,0.00,WeatherDisplay:10.37,2013-07-24 14:33:00,
2013-07-24 10:34:00,62.4,42.5,29.75,North,0,8.1,8.1,48,0.00,CLR,,0.00,WeatherDisplay:10.37,2013-07-24 14:34:00,
2013-07-24 10:35:00,62.6,42.6,29.75,ESE,112,2.3,2.3,48,0.00,CLR,,0.00,WeatherDisplay:10.37,2013-07-24 14:35:00,
2013-07-24 10:37:00,62.8,42.8,29.75,ENE,68,2.3,2.3,48,0.00,CLR,,0.00,WeatherDisplay:10.37,2013-07-24 14:37:00,
2013-07-24 10:38:00,63.0,43.0,29.75,ENE,68,1.2,1.2,48,0.00,CLR,,0.00,WeatherDisplay:10.37,2013-07-24 14:38:00,
2013-07-24 10:39:00,63.0,43.0,29.75,NE,45,3.1,3.1,48,0.00,CLR,,0.00,WeatherDisplay:10.37,2013-07-24 14:39:00,
2013-07-24 10:41:00,62.4,41.9,29.75,ENE,68,5.8,5.8,47,0.00,CLR,,0.00,WeatherDisplay:10.37,2013-07-24 14:41:00,
2013-07-24 10:42:00,62.4,41.9,29.75,NNE,22,5.8,5.8,47,0.00,CLR,,0.00,WeatherDisplay:10.37,2013-07-24 14:42:00,
2013-07-24 10:43:00,62.2,41.7,29.75,NNE,22,3.5,3.5,47,0.00,CLR,,0.00,WeatherDisplay:10.37,2013-07-24 14:43:00,
2013-07-24 10:44:00,61.9,42.0,29.75,NE,45,4.6,4.6,48,0.00,CLR,,0.00,WeatherDisplay:10.37,2013-07-24 14:44:00,
2013-07-24 10:46:00,61.9,42.0,29.75,North,0,4.6,4.6,48,0.00,CLR,,0.00,WeatherDisplay:10.37,2013-07-24 14:46:00,
2013-07-24 10:47:00,61.5,41.6,29.75,ESE,112,5.8,5.8,48,0.00,CLR,,0.00,WeatherDisplay:10.37,2013-07-24 14:47:00,
2013-07-24 10:48:00,61.5,42.2,29.75,East,90,5.8,5.8,49,0.00,CLR,,0.00,WeatherDisplay:10.37,2013-07-24 14:48:00,
2013-07-24 10:49:00,61.5,42.2,29.75,NE,45,3.5,3.5,49,0.00,CLR,,0.00,WeatherDisplay:10.37,2013-07-24 14:49:00,
2013-07-24 10:51:00,61.5,42.7,29.78,NNE,22,3.5,3.5,50,0.00,CLR,,0.00,WeatherDisplay:10.37,2013-07-24 14:51:00,
2013-07-24 10:52:00,61.5,42.7,29.78,NNE,22,3.5,3.5,50,0.00,CLR,,0.00,WeatherDisplay:10.37,2013-07-24 14:52:00,
2013-07-24 10:53:00,61.5,42.7,29.78,NE,45,4.6,4.6,50,0.00,CLR,,0.00,WeatherDisplay:10.37,2013-07-24 14:53:00,
2013-07-24 10:54:00,61.5,42.7,29.78,ESE,112,3.5,3.5,50,0.00,CLR,,0.00,WeatherDisplay:10.37,2013-07-24 14:54:00,
2013-07-24 10:56:00,61.3,42.5,29.78,NNW,338,5.8,5.8,50,0.00,CLR,,0.00,WeatherDisplay:10.37,2013-07-24 14:56:00,
2013-07-24 10:57:00,61.3,43.0,29.78,ENE,68,5.8,5.8,51,0.00,CLR,,0.00,WeatherDisplay:10.37,2013-07-24 14:57:00,
2013-07-24 10:58:00,61.3,43.0,29.78,NE,45,3.5,3.5,51,0.00,CLR,,0.00,WeatherDisplay:10.37,2013-07-24 14:58:00,
2013-07-24 10:59:00,61.3,43.0,29.78,NNE,22,3.5,3.5,51,0.00,CLR,,0.00,WeatherDisplay:10.37,2013-07-24 14:59:00,
2013-07-24 11:01:00,61.3,43.6,29.78,ESE,112,3.5,3.5,52,0.00,CLR,,0.00,WeatherDisplay:10.37,2013-07-24 15:01:00,
2013-07-24 11:02:00,61.2,42.9,29.78,NNW,338,3.5,3.5,51,0.00,CLR,,0.00,WeatherDisplay:10.37,2013-07-24 15:02:00,
2013-07-24 11:03:00,61.3,43.6,29.78,ESE,112,3.5,3.5,52,0.00,CLR,,0.00,WeatherDisplay:10.37,2013-07-24 15:03:00,
2013-07-24 11:04:00,61.3,43.6,29.78,East,90,3.5,3.5,52,0.00,CLR,,0.00,WeatherDisplay:10.37,2013-07-24 15:04:00,
2013-07-24 11:07:00,61.7,43.9,29.78,ESE,112,1.2,0.0,52,0.00,CLR,,0.00,WeatherDisplay:10.37,2013-07-24 15:07:00,
2013-07-24 11:09:00,62.1,44.2,29.78,East,90,2.3,2.3,52,0.00,CLR,,0.00,WeatherDisplay:10.37,2013-07-24 15:09:00,
2013-07-24 11:10:00,62.1,43.7,29.78,NNE,22,4.6,4.6,51,0.00,CLR,,0.00,WeatherDisplay:10.37,2013-07-24 15:10:00,
2013-07-24 11:12:00,62.2,43.4,29.78,ENE,68,4.0,4.0,50,0.00,CLR,,0.00,WeatherDisplay:10.37,2013-07-24 15:12:00,
2013-07-24 11:13:00,62.2,43.4,29.78,NE,45,6.0,6.0,50,0.00,CLR,,0.00,WeatherDisplay:10.37,2013-07-24 15:13:00,
2013-07-24 11:14:00,62.2,42.8,29.78,NNE,22,5.8,5.8,49,0.00,CLR,,0.00,WeatherDisplay:10.37,2013-07-24 15:14:00,
2013-07-24 11:15:00,62.2,42.8,29.78,NE,45,5.4,5.4,49,0.00,CLR,,0.00,WeatherDisplay:10.37,2013-07-24 15:15:00,
2013-07-24 11:17:00,62.2,42.3,29.78,SE,135,4.6,4.6,48,0.00,CLR,,0.00,WeatherDisplay:10.37,2013-07-24 15:17:00,
2013-07-24 11:18:00,62.1,42.1,29.78,North,0,5.8,5.8,48,0.00,CLR,,0.00,WeatherDisplay:10.37,2013-07-24 15:18:00,
2013-07-24 11:19:00,62.1,42.1,29.78,ENE,68,5.9,5.9,48,0.00,CLR,,0.00,WeatherDisplay:10.37,2013-07-24 15:19:00,
2013-07-24 11:20:00,62.1,42.1,29.78,NNE,22,5.8,5.8,48,0.00,CLR,,0.00,WeatherDisplay:10.37,2013-07-24 15:20:00,
2013-07-24 11:23:00,62.2,42.3,29.78,NE,45,4.6,4.6,48,0.00,CLR,,0.00,WeatherDisplay:10.37,2013-07-24 15:23:00,
2013-07-24 11:24:00,62.2,42.3,29.78,NE,45,5.6,5.6,48,0.00,CLR,,0.00,WeatherDisplay:10.37,2013-07-24 15:24:00,
2013-07-24 11:25:00,62.2,42.3,29.78,North,0,5.8,5.8,48,0.00,CLR,,0.00,WeatherDisplay:10.37,2013-07-24 15:25:00,
2013-07-24 11:28:00,62.6,42.1,29.78,East,90,6.9,6.9,47,0.00,CLR,,0.00,WeatherDisplay:10.37,2013-07-24 15:28:00,
2013-07-24 11:29:00,62.6,42.1,29.78,ENE,68,3.5,3.5,47,0.00,CLR,,0.00,WeatherDisplay:10.37,2013-07-24 15:29:00,
2013-07-24 11:30:00,62.6,42.1,29.78,NE,45,2.3,2.3,47,0.00,CLR,,0.00,WeatherDisplay:10.37,2013-07-24 15:30:00,
2013-07-24 11:31:00,62.6,41.5,29.78,NE,45,3.5,3.5,46,0.00,CLR,,0.00,WeatherDisplay:10.37,2013-07-24 15:31:00,
2013-07-24 11:33:00,62.8,41.7,29.78,ESE,112,4.6,4.6,46,0.00,CLR,,0.00,WeatherDisplay:10.37,2013-07-24 15:33:00,
2013-07-24 11:34:00,62.8,41.7,29.78,East,90,4.6,4.6,46,0.00,CLR,,0.00,WeatherDisplay:10.37,2013-07-24 15:34:00,
2013-07-24 11:35:00,62.8,42.2,29.78,ENE,68,2.6,2.6,47,0.00,CLR,,0.00,WeatherDisplay:10.37,2013-07-24 15:35:00,
2013-07-24 11:36:00,62.8,42.2,29.78,East,90,2.4,2.4,47,0.00,CLR,,0.00,WeatherDisplay:10.37,2013-07-24 15:36:00,
2013-07-24 11:39:00,62.6,42.1,29.78,ESE,112,4.6,4.6,47,0.00,CLR,,0.00,WeatherDisplay:10.37,2013-07-24 15:39:00,
2013-07-24 11:40:00,62.6,41.5,29.78,East,90,1.2,1.2,46,0.00,CLR,,0.00,WeatherDisplay:10.37,2013-07-24 15:40:00,
2013-07-24 11:42:00,62.8,42.2,29.78,ENE,68,4.6,4.6,47,0.00,CLR,,0.00,WeatherDisplay:10.37,2013-07-24 15:42:00,
2013-07-24 11:44:00,62.6,42.1,29.78,ENE,68,5.8,5.8,47,0.00,CLR,,0.00,WeatherDisplay:10.37,2013-07-24 15:44:00,
2013-07-24 11:45:00,62.6,41.5,29.78,NW,315,4.6,4.6,46,0.00,CLR,,0.00,WeatherDisplay:10.37,2013-07-24 15:45:00,
2013-07-24 11:47:00,63.0,41.8,29.78,WSW,248,4.6,4.6,46,0.00,CLR,,0.00,WeatherDisplay:10.37,2013-07-24 15:47:00,
2013-07-24 11:49:00,63.1,42.6,29.78,East,90,4.6,4.6,47,0.00,CLR,,0.00,WeatherDisplay:10.37,2013-07-24 15:49:00,
2013-07-24 11:50:00,63.5,42.9,29.81,SSE,158,0.0,1.4,47,0.00,CLR,,0.00,WeatherDisplay:10.37,2013-07-24 15:50:00,
2013-07-24 11:51:00,63.7,43.1,29.81,NNE,22,2.9,0.0,47,0.00,CLR,,0.00,WeatherDisplay:10.37,2013-07-24 15:51:00,
2013-07-24 11:52:00,63.7,42.5,29.81,East,90,2.3,2.3,46,0.00,CLR,,0.00,WeatherDisplay:10.37,2013-07-24 15:52:00,
2013-07-24 11:54:00,63.5,42.3,29.81,NNE,22,2.3,2.3,46,0.00,CLR,,0.00,WeatherDisplay:10.37,2013-07-24 15:54:00,
2013-07-24 11:55:00,63.3,41.6,29.81,NNE,22,2.3,2.3,45,0.00,CLR,,0.00,WeatherDisplay:10.37,2013-07-24 15:55:00,
2013-07-24 11:56:00,63.5,41.8,29.81,NNE,22,2.3,2.3,45,0.00,CLR,,0.00,WeatherDisplay:10.37,2013-07-24 15:56:00,
2013-07-24 11:58:00,63.5,41.8,29.81,ENE,68,3.5,3.5,45,0.00,CLR,,0.00,WeatherDisplay:10.37,2013-07-24 15:58:00,
2013-07-24 11:59:00,63.5,42.3,29.81,East,90,3.5,3.5,46,0.00,CLR,,0.00,WeatherDisplay:10.37,2013-07-24 15:59:00,
2013-07-24 12:00:00,63.3,42.2,29.81,East,90,3.6,3.6,46,0.00,CLR,,0.00,WeatherDisplay:10.37,2013-07-24 16:00:00,
2013-07-24 12:01:00,63.1,41.4,29.81,NNE,22,5.8,5.8,45,0.00,CLR,,0.00,WeatherDisplay:10.37,2013-07-24 16:01:00,
2013-07-24 12:03:00,63.1,42.0,29.81,ESE,112,3.5,3.5,46,0.00,CLR,,0.00,WeatherDisplay:10.37,2013-07-24 16:03:00,
2013-07-24 12:04:00,63.1,42.0,29.81,WSW,248,3.8,3.8,46,0.00,CLR,,0.00,WeatherDisplay:10.37,2013-07-24 16:04:00,
2013-07-24 12:07:00,63.0,42.4,29.81,East,90,4.6,4.6,47,0.00,CLR,,0.00,WeatherDisplay:10.37,2013-07-24 16:07:00,
2013-07-24 12:08:00,62.8,42.2,29.81,North,0,1.6,0.0,47,0.00,CLR,,0.00,WeatherDisplay:10.37,2013-07-24 16:08:00,
2013-07-24 12:09:00,63.0,42.4,29.81,NE,45,2.0,2.0,47,0.00,CLR,,0.00,WeatherDisplay:10.37,2013-07-24 16:09:00,
2013-07-24 12:10:00,63.0,42.4,29.81,East,90,2.6,2.6,47,0.00,CLR,,0.00,WeatherDisplay:10.37,2013-07-24 16:10:00,
2013-07-24 12:12:00,62.6,42.1,29.81,ESE,112,5.8,5.8,47,0.00,CLR,,0.00,WeatherDisplay:10.37,2013-07-24 16:12:00,
2013-07-24 12:13:00,62.8,42.2,29.81,NE,45,3.5,3.5,47,0.00,CLR,,0.00,WeatherDisplay:10.37,2013-07-24 16:13:00,
2013-07-24 12:14:00,62.8,42.2,29.81,ESE,112,1.4,1.4,47,0.00,CLR,,0.00,WeatherDisplay:10.37,2013-07-24 16:14:00,
2013-07-24 12:15:00,63.0,42.4,29.81,WNW,292,2.3,2.3,47,0.00,CLR,,0.00,WeatherDisplay:10.37,2013-07-24 16:15:00,
2013-07-24 12:17:00,63.1,43.1,29.81,NE,45,4.9,0.0,48,0.00,CLR,,0.00,WeatherDisplay:10.37,2013-07-24 16:17:00,
2013-07-24 12:18:00,63.0,42.4,29.81,NNW,338,2.4,2.4,47,0.00,CLR,,0.00,WeatherDisplay:10.37,2013-07-24 16:18:00,
2013-07-24 12:19:00,63.0,42.4,29.81,NE,45,2.3,2.3,47,0.00,CLR,,0.00,WeatherDisplay:10.37,2013-07-24 16:19:00,
2013-07-24 12:22:00,63.0,42.4,29.81,East,90,3.5,3.5,47,0.00,CLR,,0.00,WeatherDisplay:10.37,2013-07-24 16:22:00,
2013-07-24 12:23:00,63.0,42.4,29.81,North,0,3.5,3.5,47,0.00,CLR,,0.00,WeatherDisplay:10.37,2013-07-24 16:23:00,
2013-07-24 12:24:00,63.0,42.4,29.81,ENE,68,3.8,3.8,47,0.00,CLR,,0.00,WeatherDisplay:10.37,2013-07-24 16:24:00,
2013-07-24 12:27:00,63.0,42.4,29.81,NNW,338,3.3,3.3,47,0.00,CLR,,0.00,WeatherDisplay:10.37,2013-07-24 16:27:00,
2013-07-24 12:28:00,63.0,42.4,29.81,NNW,338,3.5,3.5,47,0.00,CLR,,0.00,WeatherDisplay:10.37,2013-07-24 16:28:00,
2013-07-24 12:29:00,63.1,42.6,29.81,NNW,338,3.5,3.5,47,0.00,CLR,,0.00,WeatherDisplay:10.37,2013-07-24 16:29:00,
2013-07-24 12:30:00,63.1,42.6,29.81,ESE,112,2.4,2.4,47,0.00,CLR,,0.00,WeatherDisplay:10.37,2013-07-24 16:30:00,
2013-07-24 12:32:00,63.5,42.9,29.81,ENE,68,3.5,3.5,47,0.00,CLR,,0.00,WeatherDisplay:10.37,2013-07-24 16:32:00,
2013-07-24 12:33:00,63.3,42.2,29.81,ESE,112,5.8,5.8,46,0.00,CLR,,0.00,WeatherDisplay:10.37,2013-07-24 16:33:00,
2013-07-24 12:34:00,63.5,42.3,29.81,ENE,68,5.8,5.8,46,0.00,CLR,,0.00,WeatherDisplay:10.37,2013-07-24 16:34:00,
2013-07-24 12:35:00,63.9,42.7,29.81,ENE,68,3.5,3.5,46,0.00,CLR,,0.00,WeatherDisplay:10.37,2013-07-24 16:35:00,
2013-07-24 12:37:00,64.2,43.0,29.81,NE,45,3.5,3.5,46,0.00,CLR,,0.00,WeatherDisplay:10.37,2013-07-24 16:37:00,
2013-07-24 12:38:00,64.4,42.6,29.81,NE,45,2.3,2.3,45,0.00,CLR,,0.00,WeatherDisplay:10.37,2013-07-24 16:38:00,
2013-07-24 12:39:00,64.8,43.5,29.81,SSW,202,1.2,1.2,46,0.00,CLR,,0.00,WeatherDisplay:10.37,2013-07-24 16:39:00,
2013-07-24 12:40:00,65.1,43.8,29.81,ESE,112,3.6,0.0,46,0.00,CLR,,0.00,WeatherDisplay:10.37,2013-07-24 16:40:00,
2013-07-24 12:43:00,64.8,42.3,29.81,WNW,292,5.8,5.8,44,0.00,CLR,,0.00,WeatherDisplay:10.37,2013-07-24 16:43:00,
2013-07-24 12:45:00,64.8,42.3,29.81,ENE,68,2.3,2.4,44,0.00,CLR,,0.00,WeatherDisplay:10.37,2013-07-24 16:45:00,
2013-07-24 12:46:00,65.1,43.2,29.81,West,270,5.8,0.0,45,0.00,CLR,,0.00,WeatherDisplay:10.37,2013-07-24 16:46:00,
2013-07-24 12:48:00,64.9,41.9,29.81,East,90,3.5,3.5,43,0.00,CLR,,0.00,WeatherDisplay:10.37,2013-07-24 16:48:00,
2013-07-24 12:49:00,65.1,42.1,29.81,ENE,68,3.5,3.5,43,0.00,CLR,,0.00,WeatherDisplay:10.37,2013-07-24 16:49:00,
2013-07-24 12:50:00,65.5,42.4,29.81,ENE,68,2.3,2.3,43,0.00,CLR,,0.00,WeatherDisplay:10.37,2013-07-24 16:50:00,
2013-07-24 12:51:00,65.7,42.5,29.81,NNE,22,2.9,2.9,43,0.00,CLR,,0.00,WeatherDisplay:10.37,2013-07-24 16:51:00,
2013-07-24 12:53:00,65.8,42.7,29.81,NNE,22,2.3,2.3,43,0.00,CLR,,0.00,WeatherDisplay:10.37,2013-07-24 16:53:00,
2013-07-24 12:56:00,66.7,42.3,29.81,NNW,338,4.6,4.6,41,0.00,CLR,,0.00,WeatherDisplay:10.37,2013-07-24 16:56:00,
2013-07-24 12:59:00,67.3,42.8,29.81,ESE,112,2.3,2.3,41,0.00,CLR,,0.00,WeatherDisplay:10.37,2013-07-24 16:59:00,
2013-07-24 13:03:00,67.3,42.8,29.81,ENE,68,2.2,2.2,41,0.00,CLR,,0.00,WeatherDisplay:10.37,2013-07-24 17:03:00,
2013-07-24 13:04:00,67.3,42.8,29.81,NNE,22,2.3,2.3,41,0.00,CLR,,0.00,WeatherDisplay:10.37,2013-07-24 17:04:00,
2013-07-24 13:05:00,66.9,41.1,29.81,East,90,2.3,2.3,39,0.00,CLR,,0.00,WeatherDisplay:10.37,2013-07-24 17:05:00,
2013-07-24 13:08:00,65.8,40.2,29.81,NE,45,4.6,4.6,39,0.00,CLR,,0.00,WeatherDisplay:10.37,2013-07-24 17:08:00,
2013-07-24 13:10:00,65.7,40.0,29.81,ESE,112,0.0,1.2,39,0.00,CLR,,0.00,WeatherDisplay:10.37,2013-07-24 17:10:00,
2013-07-24 13:13:00,65.1,40.2,29.81,NNE,22,4.6,4.6,40,0.00,CLR,,0.00,WeatherDisplay:10.37,2013-07-24 17:13:00,
2013-07-24 13:14:00,65.1,40.2,29.81,North,0,5.8,5.8,40,0.00,CLR,,0.00,WeatherDisplay:10.37,2013-07-24 17:14:00,
2013-07-24 13:15:00,65.1,40.2,29.81,North,0,2.4,2.4,40,0.00,CLR,,0.00,WeatherDisplay:10.37,2013-07-24 17:15:00,
2013-07-24 13:18:00,64.6,40.3,29.81,NNW,338,5.8,5.8,41,0.00,CLR,,0.00,WeatherDisplay:10.37,2013-07-24 17:18:00,
2013-07-24 13:19:00,64.6,40.3,29.81,NNE,22,3.5,3.5,41,0.00,CLR,,0.00,WeatherDisplay:10.37,2013-07-24 17:19:00,
2013-07-24 13:20:00,64.4,40.8,29.78,North,0,3.5,3.5,42,0.00,CLR,,0.00,WeatherDisplay:10.37,2013-07-24 17:20:00,
2013-07-24 13:24:00,64.6,41.6,29.78,NNW,338,3.5,3.5,43,0.00,CLR,,0.00,WeatherDisplay:10.37,2013-07-24 17:24:00,
2013-07-24 13:25:00,65.1,42.7,29.78,East,90,1.2,0.0,44,0.00,CLR,,0.00,WeatherDisplay:10.37,2013-07-24 17:25:00,
2013-07-24 13:29:00,65.7,42.5,29.78,ESE,112,2.3,2.3,43,0.00,CLR,,0.00,WeatherDisplay:10.37,2013-07-24 17:29:00,
2013-07-24 13:30:00,66.0,42.9,29.78,NNE,22,5.4,5.4,43,0.00,CLR,,0.00,WeatherDisplay:10.37,2013-07-24 17:30:00,
2013-07-24 13:31:00,65.8,42.1,29.78,North,0,5.8,5.8,42,0.00,CLR,,0.00,WeatherDisplay:10.37,2013-07-24 17:31:00,
2013-07-24 13:34:00,66.2,42.4,29.78,ESE,112,3.5,3.5,42,0.00,CLR,,0.00,WeatherDisplay:10.37,2013-07-24 17:34:00,
2013-07-24 13:35:00,65.7,42.5,29.78,ESE,112,1.2,1.2,43,0.00,CLR,,0.00,WeatherDisplay:10.37,2013-07-24 17:35:00,
2013-07-24 13:36:00,65.7,42.5,29.78,ESE,112,3.3,3.3,43,0.00,CLR,,0.00,WeatherDisplay:10.37,2013-07-24 17:36:00,
2013-07-24 13:37:00,65.7,42.5,29.78,East,90,3.5,3.5,43,0.00,CLR,,0.00,WeatherDisplay:10.37,2013-07-24 17:37:00,
2013-07-24 13:39:00,65.3,41.6,29.78,East,90,4.7,4.7,42,0.00,CLR,,0.00,WeatherDisplay:10.37,2013-07-24 17:39:00,
2013-07-24 13:41:00,65.3,41.6,29.78,ESE,112,2.3,2.6,42,0.00,CLR,,0.00,WeatherDisplay:10.37,2013-07-24 17:41:00,
2013-07-24 13:42:00,65.8,42.1,29.78,ESE,112,0.0,0.0,42,0.00,CLR,,0.00,WeatherDisplay:10.37,2013-07-24 17:42:00,
2013-07-24 13:44:00,66.4,42.0,29.78,SE,135,4.3,4.3,41,0.00,CLR,,0.00,WeatherDisplay:10.37,2013-07-24 17:44:00,
2013-07-24 13:46:00,66.4,41.3,29.78,ESE,112,5.8,5.8,40,0.00,CLR,,0.00,WeatherDisplay:10.37,2013-07-24 17:46:00,
2013-07-24 13:47:00,66.4,41.3,29.78,East,90,2.3,2.3,40,0.00,CLR,,0.00,WeatherDisplay:10.37,2013-07-24 17:47:00,
2013-07-24 13:49:00,66.6,41.5,29.78,NE,45,2.6,2.6,40,0.00,CLR,,0.00,WeatherDisplay:10.37,2013-07-24 17:49:00,
2013-07-24 13:50:00,67.1,41.3,29.78,North,0,5.8,5.8,39,0.00,CLR,,0.00,WeatherDisplay:10.37,2013-07-24 17:50:00,
2013-07-24 13:51:00,67.1,41.3,29.81,East,90,4.6,4.6,39,0.00,CLR,,0.00,WeatherDisplay:10.37,2013-07-24 17:51:00,
2013-07-24 13:52:00,67.3,40.1,29.81,NE,45,5.8,5.8,37,0.00,CLR,,0.00,WeatherDisplay:10.37,2013-07-24 17:52:00,
2013-07-24 13:55:00,67.8,41.3,29.81,ESE,112,5.8,5.8,38,0.00,CLR,,0.00,WeatherDisplay:10.37,2013-07-24 17:55:00,
2013-07-24 13:56:00,69.1,41.0,29.81,NNW,338,3.5,3.5,36,0.00,CLR,,0.00,WeatherDisplay:10.37,2013-07-24 17:56:00,
2013-07-24 13:57:00,69.4,41.3,29.81,ENE,68,4.6,4.6,36,0.00,CLR,,0.00,WeatherDisplay:10.37,2013-07-24 17:57:00,
2013-07-24 14:00:00,70.0,40.3,29.81,NNE,22,3.5,3.5,34,0.00,CLR,,0.00,WeatherDisplay:10.37,2013-07-24 18:00:00,
2013-07-24 14:02:00,71.4,41.6,29.81,NNE,22,3.5,3.5,34,0.00,CLR,,0.00,WeatherDisplay:10.37,2013-07-24 18:02:00,
2013-07-24 14:05:00,71.6,41.0,29.81,East,90,3.5,3.5,33,0.00,CLR,,0.00,WeatherDisplay:10.37,2013-07-24 18:05:00,
2013-07-24 14:07:00,69.6,39.2,29.81,North,0,6.9,6.9,33,0.00,CLR,,0.00,WeatherDisplay:10.37,2013-07-24 18:07:00,
2013-07-24 14:08:00,69.6,39.2,29.81,ENE,68,6.9,6.9,33,0.00,CLR,,0.00,WeatherDisplay:10.37,2013-07-24 18:08:00,
2013-07-24 14:10:00,69.1,38.8,29.81,East,90,4.6,4.6,33,0.00,CLR,,0.00,WeatherDisplay:10.37,2013-07-24 18:10:00,
2013-07-24 14:12:00,70.5,40.0,29.81,East,90,1.4,1.4,33,0.00,CLR,,0.00,WeatherDisplay:10.37,2013-07-24 18:12:00,
2013-07-24 14:13:00,70.5,40.0,29.81,NE,45,2.0,2.0,33,0.00,CLR,,0.00,WeatherDisplay:10.37,2013-07-24 18:13:00,
2013-07-24 14:15:00,71.4,40.8,29.81,NNW,338,3.8,0.0,33,0.00,CLR,,0.00,WeatherDisplay:10.37,2013-07-24 18:15:00,
2013-07-24 14:17:00,70.5,39.2,29.81,East,90,3.5,3.5,32,0.00,CLR,,0.00,WeatherDisplay:10.37,2013-07-24 18:17:00,
2013-07-24 14:18:00,70.2,38.9,29.81,ESE,112,3.5,3.5,32,0.00,CLR,,0.00,WeatherDisplay:10.37,2013-07-24 18:18:00,
2013-07-24 14:20:00,68.7,37.7,29.81,ENE,68,4.6,4.6,32,0.00,CLR,,0.00,WeatherDisplay:10.37,2013-07-24 18:20:00,
2013-07-24 14:23:00,69.8,38.6,29.81,NNE,22,4.0,4.0,32,0.00,CLR,,0.00,WeatherDisplay:10.37,2013-07-24 18:23:00,
2013-07-24 14:24:00,71.2,39.9,29.81,ESE,112,4.6,4.6,32,0.00,CLR,,0.00,WeatherDisplay:10.37,2013-07-24 18:24:00,
2013-07-24 14:25:00,71.2,38.2,29.81,NE,45,2.3,2.3,30,0.00,CLR,,0.00,WeatherDisplay:10.37,2013-07-24 18:25:00,
2013-07-24 14:26:00,71.2,38.2,29.81,NE,45,4.6,4.6,30,0.00,CLR,,0.00,WeatherDisplay:10.37,2013-07-24 18:26:00,
2013-07-24 14:28:00,72.7,36.8,29.81,ENE,68,3.5,3.5,27,0.00,CLR,,0.00,WeatherDisplay:10.37,2013-07-24 18:28:00,
2013-07-24 14:29:00,72.7,36.8,29.81,North,0,5.4,5.4,27,0.00,CLR,,0.00,WeatherDisplay:10.37,2013-07-24 18:29:00,
2013-07-24 14:31:00,72.5,36.6,29.81,ENE,68,3.5,3.5,27,0.00,CLR,,0.00,WeatherDisplay:10.37,2013-07-24 18:31:00,
2013-07-24 14:33:00,73.4,36.4,29.81,SE,135,2.6,2.6,26,0.00,CLR,,0.00,WeatherDisplay:10.37,2013-07-24 18:33:00,
2013-07-24 14:34:00,73.4,36.4,29.81,SE,135,4.3,4.3,26,0.00,CLR,,0.00,WeatherDisplay:10.37,2013-07-24 18:34:00,
2013-07-24 14:36:00,72.7,35.8,29.78,SSE,158,6.9,6.9,26,0.00,CLR,,0.00,WeatherDisplay:10.37,2013-07-24 18:36:00,
2013-07-24 14:39:00,71.8,34.0,29.78,NE,45,3.6,3.6,25,0.00,CLR,,0.00,WeatherDisplay:10.37,2013-07-24 18:39:00,
2013-07-24 14:41:00,73.0,36.1,29.78,NE,45,2.4,2.4,26,0.00,CLR,,0.00,WeatherDisplay:10.37,2013-07-24 18:41:00,
2013-07-24 14:44:00,73.0,35.1,29.78,ESE,112,3.5,3.5,25,0.00,CLR,,0.00,WeatherDisplay:10.37,2013-07-24 18:44:00,
2013-07-24 14:46:00,73.8,34.7,29.78,ESE,112,2.3,2.3,24,0.00,CLR,,0.00,WeatherDisplay:10.37,2013-07-24 18:46:00,
2013-07-24 14:47:00,73.8,34.7,29.78,NE,45,4.7,4.7,24,0.00,CLR,,0.00,WeatherDisplay:10.37,2013-07-24 18:47:00,
2013-07-24 14:49:00,74.1,36.0,29.78,SE,135,3.5,3.5,25,0.00,CLR,,0.00,WeatherDisplay:10.37,2013-07-24 18:49:00,
2013-07-24 14:50:00,74.3,36.2,29.78,East,90,3.5,3.5,25,0.00,CLR,,0.00,WeatherDisplay:10.37,2013-07-24 18:50:00,
2013-07-24 14:51:00,72.7,33.8,29.81,NW,315,5.8,5.8,24,0.00,CLR,,0.00,WeatherDisplay:10.37,2013-07-24 18:51:00,
2013-07-24 14:53:00,71.8,33.0,29.81,East,90,6.9,6.9,24,0.00,CLR,,0.00,WeatherDisplay:10.37,2013-07-24 18:53:00,
2013-07-24 14:54:00,71.8,34.0,29.81,SE,135,2.3,2.3,25,0.00,CLR,,0.00,WeatherDisplay:10.37,2013-07-24 18:54:00,
2013-07-24 14:55:00,71.6,33.9,29.81,ESE,112,3.5,3.5,25,0.00,CLR,,0.00,WeatherDisplay:10.37,2013-07-24 18:55:00,
2013-07-24 14:57:00,71.8,35.0,29.81,ESE,112,2.9,2.9,26,0.00,CLR,,0.00,WeatherDisplay:10.37,2013-07-24 18:57:00,
2013-07-24 14:58:00,71.4,34.7,29.81,East,90,3.5,3.5,26,0.00,CLR,,0.00,WeatherDisplay:10.37,2013-07-24 18:58:00,
2013-07-24 14:59:00,70.7,34.1,29.81,ESE,112,4.6,4.6,26,0.00,CLR,,0.00,WeatherDisplay:10.37,2013-07-24 18:59:00,
2013-07-24 15:00:00,70.2,34.6,29.81,WSW,248,4.6,4.6,27,0.00,CLR,,0.00,WeatherDisplay:10.37,2013-07-24 19:00:00,
2013-07-24 15:02:00,69.3,34.7,29.81,North,0,2.3,2.3,28,0.00,CLR,,0.00,WeatherDisplay:10.37,2013-07-24 19:02:00,
2013-07-24 15:03:00,70.2,35.5,29.81,East,90,2.3,2.3,28,0.00,CLR,,0.00,WeatherDisplay:10.37,2013-07-24 19:03:00,
2013-07-24 15:04:00,70.7,36.0,29.81,ENE,68,2.6,2.6,28,0.00,CLR,,0.00,WeatherDisplay:10.37,2013-07-24 19:04:00,
2013-07-24 15:05:00,71.4,36.6,29.81,ESE,112,2.3,2.3,28,0.00,CLR,,0.00,WeatherDisplay:10.37,2013-07-24 19:05:00,
2013-07-24 15:06:00,72.5,38.4,29.81,ESE,112,1.2,0.0,29,0.00,CLR,,0.00,WeatherDisplay:10.37,2013-07-24 19:06:00,
2013-07-24 15:07:00,73.0,37.1,29.81,NNE,22,2.3,2.3,27,0.00,CLR,,0.00,WeatherDisplay:10.37,2013-07-24 19:07:00,
2013-07-24 15:08:00,73.6,37.5,29.81,East,90,4.6,4.6,27,0.00,CLR,,0.00,WeatherDisplay:10.37,2013-07-24 19:08:00,
2013-07-24 15:09:00,73.8,36.7,29.81,ESE,112,2.3,2.3,26,0.00,CLR,,0.00,WeatherDisplay:10.37,2013-07-24 19:09:00,
2013-07-24 15:11:00,73.6,35.6,29.81,NE,45,2.4,2.4,25,0.00,CLR,,0.00,WeatherDisplay:10.37,2013-07-24 19:11:00,
2013-07-24 15:12:00,73.9,34.8,29.81,SSE,158,4.6,4.6,24,0.00,CLR,,0.00,WeatherDisplay:10.37,2013-07-24 19:12:00,
2013-07-24 15:13:00,73.2,34.2,29.81,NNW,338,5.6,5.6,24,0.00,CLR,,0.00,WeatherDisplay:10.37,2013-07-24 19:13:00,
2013-07-24 15:15:00,73.0,34.1,29.81,NNE,22,5.8,5.8,24,0.00,CLR,,0.00,WeatherDisplay:10.37,2013-07-24 19:15:00,
2013-07-24 15:16:00,73.8,34.7,29.81,North,0,3.5,3.5,24,0.00,CLR,,0.00,WeatherDisplay:10.37,2013-07-24 19:16:00,
2013-07-24 15:17:00,74.7,36.5,29.81,ESE,112,3.3,3.3,25,0.00,CLR,,0.00,WeatherDisplay:10.37,2013-07-24 19:17:00,
2013-07-24 15:19:00,74.7,35.5,29.81,NW,315,3.5,3.5,24,0.00,CLR,,0.00,WeatherDisplay:10.37,2013-07-24 19:19:00,
2013-07-24 15:20:00,73.9,33.8,29.81,North,0,5.8,5.8,23,0.00,CLR,,0.00,WeatherDisplay:10.37,2013-07-24 19:20:00,
2013-07-24 15:21:00,73.9,33.8,29.81,ESE,112,3.6,3.6,23,0.00,CLR,,0.00,WeatherDisplay:10.37,2013-07-24 19:21:00,
2013-07-24 15:22:00,74.1,33.9,29.81,NNE,22,3.5,3.5,23,0.00,CLR,,0.00,WeatherDisplay:10.37,2013-07-24 19:22:00,
2013-07-24 15:23:00,73.6,33.5,29.81,East,90,5.8,5.8,23,0.00,CLR,,0.00,WeatherDisplay:10.37,2013-07-24 19:23:00,
2013-07-24 15:24:00,73.4,33.3,29.81,SE,135,3.5,3.5,23,0.00,CLR,,0.00,WeatherDisplay:10.37,2013-07-24 19:24:00,
2013-07-24 15:25:00,73.4,33.3,29.81,NNE,22,4.9,4.9,23,0.00,CLR,,0.00,WeatherDisplay:10.37,2013-07-24 19:25:00,
2013-07-24 15:26:00,74.5,34.2,29.81,ENE,68,4.6,4.6,23,0.00,CLR,,0.00,WeatherDisplay:10.37,2013-07-24 19:26:00,
2013-07-24 15:27:00,73.6,33.5,29.81,ENE,68,1.2,1.2,23,0.00,CLR,,0.00,WeatherDisplay:10.37,2013-07-24 19:27:00,
2013-07-24 15:28:00,73.2,34.2,29.81,ESE,112,3.5,3.5,24,0.00,CLR,,0.00,WeatherDisplay:10.37,2013-07-24 19:28:00,
2013-07-24 15:29:00,72.9,33.9,29.81,ESE,112,3.1,3.1,24,0.00,CLR,,0.00,WeatherDisplay:10.37,2013-07-24 19:29:00,
2013-07-24 15:30:00,72.0,33.2,29.81,East,90,3.5,3.5,24,0.00,CLR,,0.00,WeatherDisplay:10.37,2013-07-24 19:30:00,
2013-07-24 15:31:00,72.0,33.2,29.81,East,90,3.5,3.5,24,0.00,CLR,,0.00,WeatherDisplay:10.37,2013-07-24 19:31:00,
2013-07-24 15:32:00,72.3,33.5,29.81,ESE,112,3.5,3.5,24,0.00,CLR,,0.00,WeatherDisplay:10.37,2013-07-24 19:32:00,
2013-07-24 15:33:00,73.2,36.3,29.81,ESE,112,2.3,2.3,26,0.00,CLR,,0.00,WeatherDisplay:10.37,2013-07-24 19:33:00,
2013-07-24 15:34:00,73.8,35.7,29.81,NE,45,3.1,3.1,25,0.00,CLR,,0.00,WeatherDisplay:10.37,2013-07-24 19:34:00,
2013-07-24 15:35:00,73.4,34.4,29.84,North,0,4.6,4.6,24,0.00,CLR,,0.00,WeatherDisplay:10.37,2013-07-24 19:35:00,
2013-07-24 15:36:00,73.6,34.5,29.84,ESE,112,4.6,4.6,24,0.00,CLR,,0.00,WeatherDisplay:10.37,2013-07-24 19:36:00,
2013-07-24 15:37:00,73.6,34.5,29.84,NE,45,2.3,3.6,24,0.00,CLR,,0.00,WeatherDisplay:10.37,2013-07-24 19:37:00,
2013-07-24 15:38:00,73.4,34.4,29.84,ESE,112,2.3,2.3,24,0.00,CLR,,0.00,WeatherDisplay:10.37,2013-07-24 19:38:00,
2013-07-24 15:39:00,73.8,34.7,29.84,ENE,68,2.3,2.3,24,0.00,CLR,,0.00,WeatherDisplay:10.37,2013-07-24 19:39:00,
2013-07-24 15:40:00,73.8,34.7,29.84,SE,135,4.6,4.6,24,0.00,CLR,,0.00,WeatherDisplay:10.37,2013-07-24 19:40:00,
2013-07-24 15:42:00,74.8,35.6,29.84,SE,135,2.6,0.0,24,0.00,CLR,,0.00,WeatherDisplay:10.37,2013-07-24 19:42:00,
2013-07-24 15:44:00,74.1,33.9,29.84,ESE,112,2.6,2.6,23,0.00,CLR,,0.00,WeatherDisplay:10.37,2013-07-24 19:44:00,
2013-07-24 15:45:00,73.6,33.5,29.84,ESE,112,8.1,8.1,23,0.00,CLR,,0.00,WeatherDisplay:10.37,2013-07-24 19:45:00,
2013-07-24 15:48:00,74.1,33.9,29.84,North,0,3.5,3.5,23,0.00,CLR,,0.00,WeatherDisplay:10.37,2013-07-24 19:48:00,
2013-07-24 15:49:00,74.1,33.9,29.84,ENE,68,4.6,4.6,23,0.00,CLR,,0.00,WeatherDisplay:10.37,2013-07-24 19:49:00,
2013-07-24 15:50:00,75.4,36.1,29.81,East,90,1.2,0.0,24,0.00,CLR,,0.00,WeatherDisplay:10.37,2013-07-24 19:50:00,
2013-07-24 15:51:00,75.6,35.1,29.81,East,90,0.0,0.0,23,0.00,CLR,,0.00,WeatherDisplay:10.37,2013-07-24 19:51:00,
2013-07-24 15:53:00,75.9,35.4,29.81,ESE,112,2.3,2.3,23,0.00,CLR,,0.00,WeatherDisplay:10.37,2013-07-24 19:53:00,
2013-07-24 15:54:00,75.9,35.4,29.81,East,90,4.0,4.0,23,0.00,CLR,,0.00,WeatherDisplay:10.37,2013-07-24 19:54:00,
2013-07-24 15:55:00,76.1,34.5,29.81,ESE,112,4.6,4.6,22,0.00,CLR,,0.00,WeatherDisplay:10.37,2013-07-24 19:55:00,
2013-07-24 15:56:00,76.1,34.5,29.81,ESE,112,4.6,4.6,22,0.00,CLR,,0.00,WeatherDisplay:10.37,2013-07-24 19:56:00,
2013-07-24 15:58:00,75.9,34.3,29.81,ESE,112,2.6,2.6,22,0.00,CLR,,0.00,WeatherDisplay:10.37,2013-07-24 19:58:00,
2013-07-24 15:59:00,75.6,34.0,29.81,SSE,158,3.5,3.5,22,0.00,CLR,,0.00,WeatherDisplay:10.37,2013-07-24 19:59:00,
2013-07-24 16:01:00,75.9,34.3,29.81,ESE,112,3.5,3.5,22,0.00,CLR,,0.00,WeatherDisplay:10.37,2013-07-24 20:01:00,
2013-07-24 16:03:00,74.5,33.1,29.81,ENE,68,2.3,2.3,22,0.00,CLR,,0.00,WeatherDisplay:10.37,2013-07-24 20:03:00,
2013-07-24 16:04:00,73.6,32.4,29.81,ENE,68,2.3,2.3,22,0.00,CLR,,0.00,WeatherDisplay:10.37,2013-07-24 20:04:00,
2013-07-24 16:07:00,72.3,32.4,29.81,ESE,112,2.6,0.0,23,0.00,CLR,,0.00,WeatherDisplay:10.37,2013-07-24 20:07:00,
2013-07-24 16:08:00,72.9,33.9,29.81,ESE,112,2.3,2.3,24,0.00,CLR,,0.00,WeatherDisplay:10.37,2013-07-24 20:08:00,
2013-07-24 16:09:00,72.9,33.9,29.81,ESE,112,2.3,2.3,24,0.00,CLR,,0.00,WeatherDisplay:10.37,2013-07-24 20:09:00,
2013-07-24 16:10:00,72.9,33.9,29.81,ESE,112,2.3,2.3,24,0.00,CLR,,0.00,WeatherDisplay:10.37,2013-07-24 20:10:00,
2013-07-24 16:12:00,73.9,33.8,29.81,ENE,68,2.3,2.3,23,0.00,CLR,,0.00,WeatherDisplay:10.37,2013-07-24 20:12:00,
2013-07-24 16:13:00,73.9,33.8,29.81,ESE,112,2.3,2.3,23,0.00,CLR,,0.00,WeatherDisplay:10.37,2013-07-24 20:13:00,
2013-07-24 16:14:00,73.9,33.8,29.81,SE,135,3.5,3.5,23,0.00,CLR,,0.00,WeatherDisplay:10.37,2013-07-24 20:14:00,
2013-07-24 16:15:00,74.1,33.9,29.81,North,0,3.5,3.5,23,0.00,CLR,,0.00,WeatherDisplay:10.37,2013-07-24 20:15:00,
2013-07-24 16:17:00,75.2,33.7,29.81,NNW,338,5.4,5.4,22,0.00,CLR,,0.00,WeatherDisplay:10.37,2013-07-24 20:17:00,
2013-07-24 16:18:00,75.0,33.6,29.81,NE,45,5.8,5.8,22,0.00,CLR,,0.00,WeatherDisplay:10.37,2013-07-24 20:18:00,
2013-07-24 16:19:00,75.0,33.6,29.81,ENE,68,4.6,4.6,22,0.00,CLR,,0.00,WeatherDisplay:10.37,2013-07-24 20:19:00,
2013-07-24 16:20:00,75.0,33.6,29.81,ENE,68,4.6,4.6,22,0.00,CLR,,0.00,WeatherDisplay:10.37,2013-07-24 20:20:00,
2013-07-24 16:22:00,75.2,33.7,29.81,ESE,112,3.5,3.5,22,0.00,CLR,,0.00,WeatherDisplay:10.37,2013-07-24 20:22:00,
2013-07-24 16:24:00,75.0,33.6,29.81,ESE,112,5.8,5.8,22,0.00,CLR,,0.00,WeatherDisplay:10.37,2013-07-24 20:24:00,
2013-07-24 16:25:00,75.2,33.7,29.81,NNW,338,3.1,3.1,22,0.00,CLR,,0.00,WeatherDisplay:10.37,2013-07-24 20:25:00,
2013-07-24 16:28:00,75.9,34.3,29.81,ENE,68,1.2,1.2,22,0.00,CLR,,0.00,WeatherDisplay:10.37,2013-07-24 20:28:00,
2013-07-24 16:29:00,75.6,34.0,29.81,NE,45,3.5,3.5,22,0.00,CLR,,0.00,WeatherDisplay:10.37,2013-07-24 20:29:00,
2013-07-24 16:31:00,75.7,34.2,29.81,East,90,3.5,3.5,22,0.00,CLR,,0.00,WeatherDisplay:10.37,2013-07-24 20:31:00,
2013-07-24 16:33:00,75.0,33.6,29.81,NE,45,8.1,8.1,22,0.00,CLR,,0.00,WeatherDisplay:10.37,2013-07-24 20:33:00,
2013-07-24 16:34:00,75.0,33.6,29.81,ENE,68,3.5,3.5,22,0.00,CLR,,0.00,WeatherDisplay:10.37,2013-07-24 20:34:00,
2013-07-24 16:37:00,75.6,32.9,29.84,NW,315,2.4,2.4,21,0.00,CLR,,0.00,WeatherDisplay:10.37,2013-07-24 20:37:00,
2013-07-24 16:38:00,75.7,33.0,29.84,NNE,22,2.3,2.3,21,0.00,CLR,,0.00,WeatherDisplay:10.37,2013-07-24 20:38:00,
2013-07-24 16:39:00,75.9,34.3,29.84,East,90,3.6,3.6,22,0.00,CLR,,0.00,WeatherDisplay:10.37,2013-07-24 20:39:00,
2013-07-24 16:42:00,73.0,31.9,29.84,ESE,112,5.8,5.8,22,0.00,CLR,,0.00,WeatherDisplay:10.37,2013-07-24 20:42:00,
2013-07-24 16:43:00,73.2,33.2,29.84,NNE,22,2.3,2.3,23,0.00,CLR,,0.00,WeatherDisplay:10.37,2013-07-24 20:43:00,
2013-07-24 16:44:00,73.8,32.5,29.84,East,90,3.5,3.5,22,0.00,CLR,,0.00,WeatherDisplay:10.37,2013-07-24 20:44:00,
2013-07-24 16:45:00,74.1,32.8,29.84,ENE,68,4.0,4.0,22,0.00,CLR,,0.00,WeatherDisplay:10.37,2013-07-24 20:45:00,
2013-07-24 16:47:00,74.1,32.8,29.84,SSE,158,3.5,3.5,22,0.00,CLR,,0.00,WeatherDisplay:10.37,2013-07-24 20:47:00,
2013-07-24 16:48:00,73.9,32.7,29.84,ESE,112,4.6,4.6,22,0.00,CLR,,0.00,WeatherDisplay:10.37,2013-07-24 20:48:00,
2013-07-24 16:49:00,73.9,32.7,29.84,ESE,112,2.3,2.3,22,0.00,CLR,,0.00,WeatherDisplay:10.37,2013-07-24 20:49:00,
2013-07-24 16:50:00,74.8,34.5,29.81,East,90,2.3,2.3,23,0.00,CLR,,0.00,WeatherDisplay:10.37,2013-07-24 20:50:00,
2013-07-24 16:53:00,74.7,33.3,29.81,ENE,68,4.6,4.6,22,0.00,CLR,,0.00,WeatherDisplay:10.37,2013-07-24 20:53:00,
2013-07-24 16:54:00,75.0,33.6,29.81,ENE,68,3.5,3.5,22,0.00,CLR,,0.00,WeatherDisplay:10.37,2013-07-24 20:54:00,
2013-07-24 16:55:00,74.8,33.4,29.81,NNW,338,3.1,3.1,22,0.00,CLR,,0.00,WeatherDisplay:10.37,2013-07-24 20:55:00,
2013-07-24 16:58:00,75.4,33.9,29.81,North,0,2.3,2.3,22,0.00,CLR,,0.00,WeatherDisplay:10.37,2013-07-24 20:58:00,
2013-07-24 16:59:00,75.4,33.9,29.81,East,90,2.3,2.3,22,0.00,CLR,,0.00,WeatherDisplay:10.37,2013-07-24 20:59:00,
2013-07-24 17:00:00,75.9,34.3,29.81,North,0,6.9,6.9,22,0.00,CLR,,0.00,WeatherDisplay:10.37,2013-07-24 21:00:00,
2013-07-24 17:03:00,74.5,33.1,29.81,ESE,112,3.6,3.6,22,0.00,CLR,,0.00,WeatherDisplay:10.37,2013-07-24 21:03:00,
2013-07-24 17:04:00,74.7,33.3,29.81,ENE,68,4.6,4.6,22,0.00,CLR,,0.00,WeatherDisplay:10.37,2013-07-24 21:04:00,
2013-07-24 17:05:00,74.7,33.3,29.81,NE,45,3.5,3.5,22,0.00,CLR,,0.00,WeatherDisplay:10.37,2013-07-24 21:05:00,
2013-07-24 17:08:00,73.6,32.4,29.81,ENE,68,5.8,5.8,22,0.00,CLR,,0.00,WeatherDisplay:10.37,2013-07-24 21:08:00,
2013-07-24 17:09:00,73.6,32.4,29.81,North,0,2.3,2.3,22,0.00,CLR,,0.00,WeatherDisplay:10.37,2013-07-24 21:09:00,
2013-07-24 17:10:00,73.8,32.5,29.81,East,90,1.2,0.0,22,0.00,CLR,,0.00,WeatherDisplay:10.37,2013-07-24 21:10:00,
2013-07-24 17:11:00,73.2,32.1,29.81,ESE,112,1.6,0.0,22,0.00,CLR,,0.00,WeatherDisplay:10.37,2013-07-24 21:11:00,
2013-07-24 17:13:00,74.1,33.9,29.81,ESE,112,0.0,0.0,23,0.00,CLR,,0.00,WeatherDisplay:10.37,2013-07-24 21:13:00,
2013-07-24 17:14:00,74.1,33.9,29.81,ESE,112,0.0,0.0,23,0.00,CLR,,0.00,WeatherDisplay:10.37,2013-07-24 21:14:00,
2013-07-24 17:15:00,74.7,34.4,29.81,ESE,112,0.0,0.0,23,0.00,CLR,,0.00,WeatherDisplay:10.37,2013-07-24 21:15:00,
2013-07-24 17:16:00,74.7,34.4,29.81,NNE,22,2.4,0.0,23,0.00,CLR,,0.00,WeatherDisplay:10.37,2013-07-24 21:16:00,
2013-07-24 17:17:00,75.2,33.7,29.81,East,90,2.3,2.3,22,0.00,CLR,,0.00,WeatherDisplay:10.37,2013-07-24 21:17:00,
2013-07-24 17:18:00,75.6,34.0,29.81,North,0,2.3,0.0,22,0.00,CLR,,0.00,WeatherDisplay:10.37,2013-07-24 21:18:00,
2013-07-24 17:19:00,75.6,34.0,29.81,NNW,338,2.4,2.4,22,0.00,CLR,,0.00,WeatherDisplay:10.37,2013-07-24 21:19:00,
2013-07-24 17:20:00,75.7,34.2,29.84,NE,45,2.3,2.3,22,0.00,CLR,,0.00,WeatherDisplay:10.37,2013-07-24 21:20:00,
2013-07-24 17:21:00,75.9,34.3,29.84,NNE,22,2.3,2.3,22,0.00,CLR,,0.00,WeatherDisplay:10.37,2013-07-24 21:21:00,
2013-07-24 17:22:00,76.3,33.5,29.84,East,90,1.2,1.2,21,0.00,CLR,,0.00,WeatherDisplay:10.37,2013-07-24 21:22:00,
2013-07-24 17:24:00,75.9,34.3,29.84,NNE,22,5.8,5.8,22,0.00,CLR,,0.00,WeatherDisplay:10.37,2013-07-24 21:24:00,
2013-07-24 17:25:00,75.7,34.2,29.84,East,90,2.9,2.9,22,0.00,CLR,,0.00,WeatherDisplay:10.37,2013-07-24 21:25:00,
2013-07-24 17:26:00,75.7,34.2,29.84,East,90,2.9,2.9,22,0.00,CLR,,0.00,WeatherDisplay:10.37,2013-07-24 21:26:00,
2013-07-24 17:27:00,75.7,34.2,29.84,ENE,68,2.3,2.3,22,0.00,CLR,,0.00,WeatherDisplay:10.37,2013-07-24 21:27:00,
2013-07-24 17:29:00,75.6,34.0,29.84,ESE,112,4.6,0.0,22,0.00,CLR,,0.00,WeatherDisplay:10.37,2013-07-24 21:29:00,
2013-07-24 17:31:00,75.7,34.2,29.84,ESE,112,3.6,3.6,22,0.00,CLR,,0.00,WeatherDisplay:10.37,2013-07-24 21:31:00,
2013-07-24 17:32:00,75.7,34.2,29.84,ESE,112,3.5,3.5,22,0.00,CLR,,0.00,WeatherDisplay:10.37,2013-07-24 21:32:00,
2013-07-24 17:34:00,75.7,33.0,29.84,East,90,1.2,1.2,21,0.00,CLR,,0.00,WeatherDisplay:10.37,2013-07-24 21:34:00,
2013-07-24 17:35:00,76.3,34.6,29.84,East,90,1.2,0.0,22,0.00,CLR,,0.00,WeatherDisplay:10.37,2013-07-24 21:35:00,
2013-07-24 17:36:00,76.6,34.9,29.84,NNE,22,1.2,0.0,22,0.00,CLR,,0.00,WeatherDisplay:10.37,2013-07-24 21:36:00,
2013-07-24 17:37:00,76.6,34.9,29.84,ESE,112,2.3,0.0,22,0.00,CLR,,0.00,WeatherDisplay:10.37,2013-07-24 21:37:00,
2013-07-24 17:39:00,76.1,34.5,29.84,ENE,68,2.3,2.3,22,0.00,CLR,,0.00,WeatherDisplay:10.37,2013-07-24 21:39:00,
2013-07-24 17:40:00,76.1,33.3,29.84,North,0,2.3,2.3,21,0.00,CLR,,0.00,WeatherDisplay:10.37,2013-07-24 21:40:00,
2013-07-24 17:41:00,75.7,33.0,29.84,ENE,68,3.1,3.1,21,0.00,CLR,,0.00,WeatherDisplay:10.37,2013-07-24 21:41:00,
2013-07-24 17:42:00,75.6,32.9,29.84,ENE,68,4.6,4.6,21,0.00,CLR,,0.00,WeatherDisplay:10.37,2013-07-24 21:42:00,
2013-07-24 17:43:00,75.6,32.9,29.84,ESE,112,4.6,4.6,21,0.00,CLR,,0.00,WeatherDisplay:10.37,2013-07-24 21:43:00,
2013-07-24 17:44:00,75.2,32.6,29.84,SE,135,3.5,3.5,21,0.00,CLR,,0.00,WeatherDisplay:10.37,2013-07-24 21:44:00,
2013-07-24 17:46:00,75.2,32.6,29.84,North,0,2.3,2.3,21,0.00,CLR,,0.00,WeatherDisplay:10.37,2013-07-24 21:46:00,
2013-07-24 17:47:00,75.4,32.7,29.84,NNW,338,2.3,2.3,21,0.00,CLR,,0.00,WeatherDisplay:10.37,2013-07-24 21:47:00,
2013-07-24 17:48:00,75.4,32.7,29.84,North,0,2.3,2.3,21,0.00,CLR,,0.00,WeatherDisplay:10.37,2013-07-24 21:48:00,
2013-07-24 17:49:00,75.7,34.2,29.84,NNW,338,1.2,0.0,22,0.00,CLR,,0.00,WeatherDisplay:10.37,2013-07-24 21:49:00,
2013-07-24 17:51:00,75.6,32.9,29.84,SE,135,2.9,2.9,21,0.00,CLR,,0.00,WeatherDisplay:10.37,2013-07-24 21:51:00,
2013-07-24 17:52:00,75.2,32.6,29.84,East,90,2.3,2.3,21,0.00,CLR,,0.00,WeatherDisplay:10.37,2013-07-24 21:52:00,
2013-07-24 17:53:00,75.4,32.7,29.84,ENE,68,2.3,0.0,21,0.00,CLR,,0.00,WeatherDisplay:10.37,2013-07-24 21:53:00,
2013-07-24 17:55:00,75.6,34.0,29.84,SE,135,2.3,0.0,22,0.00,CLR,,0.00,WeatherDisplay:10.37,2013-07-24 21:55:00,
2013-07-24 17:56:00,75.4,32.7,29.84,NE,45,2.4,2.4,21,0.00,CLR,,0.00,WeatherDisplay:10.37,2013-07-24 21:56:00,
2013-07-24 17:57:00,75.4,32.7,29.84,ENE,68,6.9,6.9,21,0.00,CLR,,0.00,WeatherDisplay:10.37,2013-07-24 21:57:00,
2013-07-24 17:58:00,75.2,32.6,29.84,East,90,3.5,3.5,21,0.00,CLR,,0.00,WeatherDisplay:10.37,2013-07-24 21:58:00,
2013-07-24 18:00:00,75.4,32.7,29.84,NNE,22,2.6,2.6,21,0.00,CLR,,0.00,WeatherDisplay:10.37,2013-07-24 22:00:00,
2013-07-24 18:02:00,75.0,33.6,29.84,ENE,68,2.3,2.3,22,0.00,CLR,,0.00,WeatherDisplay:10.37,2013-07-24 22:02:00,
2013-07-24 18:03:00,75.2,32.6,29.84,ENE,68,2.3,2.3,21,0.00,CLR,,0.00,WeatherDisplay:10.37,2013-07-24 22:03:00,
2013-07-24 18:05:00,75.2,32.6,29.81,ENE,68,3.1,3.1,21,0.00,CLR,,0.00,WeatherDisplay:10.37,2013-07-24 22:05:00,
2013-07-24 18:07:00,75.6,34.0,29.81,East,90,0.0,0.0,22,0.00,CLR,,0.00,WeatherDisplay:10.37,2013-07-24 22:07:00,
2013-07-24 18:08:00,75.6,34.0,29.81,ENE,68,2.4,2.4,22,0.00,CLR,,0.00,WeatherDisplay:10.37,2013-07-24 22:08:00,
2013-07-24 18:10:00,74.7,33.3,29.81,East,90,2.3,2.3,22,0.00,CLR,,0.00,WeatherDisplay:10.37,2013-07-24 22:10:00,
2013-07-24 18:12:00,74.5,33.1,29.81,NE,45,2.4,2.4,22,0.00,CLR,,0.00,WeatherDisplay:10.37,2013-07-24 22:12:00,
2013-07-24 18:13:00,74.5,33.1,29.81,SE,135,2.6,2.6,22,0.00,CLR,,0.00,WeatherDisplay:10.37,2013-07-24 22:13:00,
2013-07-24 18:14:00,74.7,33.3,29.81,ENE,68,2.3,2.3,22,0.00,CLR,,0.00,WeatherDisplay:10.37,2013-07-24 22:14:00,
2013-07-24 18:15:00,74.5,33.1,29.81,ESE,112,2.3,2.3,22,0.00,CLR,,0.00,WeatherDisplay:10.37,2013-07-24 22:15:00,
2013-07-24 18:17:00,74.7,33.3,29.81,NE,45,2.9,2.9,22,0.00,CLR,,0.00,WeatherDisplay:10.37,2013-07-24 22:17:00,
2013-07-24 18:18:00,74.7,33.3,29.81,NE,45,3.3,3.3,22,0.00,CLR,,0.00,WeatherDisplay:10.37,2013-07-24 22:18:00,
2013-07-24 18:19:00,74.7,33.3,29.81,East,90,3.5,3.5,22,0.00,CLR,,0.00,WeatherDisplay:10.37,2013-07-24 22:19:00,
2013-07-24 18:22:00,74.7,33.3,29.84,NE,45,3.3,0.0,22,0.00,CLR,,0.00,WeatherDisplay:10.37,2013-07-24 22:22:00,
2013-07-24 18:23:00,74.3,33.0,29.84,NNE,22,3.5,3.5,22,0.00,CLR,,0.00,WeatherDisplay:10.37,2013-07-24 22:23:00,
2013-07-24 18:24:00,74.3,33.0,29.84,NNE,22,2.3,2.3,22,0.00,CLR,,0.00,WeatherDisplay:10.37,2013-07-24 22:24:00,
2013-07-24 18:27:00,74.5,33.1,29.84,NNE,22,3.5,3.5,22,0.00,CLR,,0.00,WeatherDisplay:10.37,2013-07-24 22:27:00,
2013-07-24 18:28:00,74.7,33.3,29.84,North,0,3.5,3.5,22,0.00,CLR,,0.00,WeatherDisplay:10.37,2013-07-24 22:28:00,
2013-07-24 18:29:00,74.3,33.0,29.84,ENE,68,3.5,3.5,22,0.00,CLR,,0.00,WeatherDisplay:10.37,2013-07-24 22:29:00,
2013-07-24 18:32:00,74.5,33.1,29.84,ESE,112,1.2,1.2,22,0.00,CLR,,0.00,WeatherDisplay:10.37,2013-07-24 22:32:00,
2013-07-24 18:33:00,74.3,34.1,29.84,NNE,22,2.6,0.0,23,0.00,CLR,,0.00,WeatherDisplay:10.37,2013-07-24 22:33:00,
2013-07-24 18:34:00,74.3,34.1,29.84,NNE,22,2.3,2.3,23,0.00,CLR,,0.00,WeatherDisplay:10.37,2013-07-24 22:34:00,
2013-07-24 18:35:00,74.1,32.8,29.84,NNE,22,1.2,1.4,22,0.00,CLR,,0.00,WeatherDisplay:10.37,2013-07-24 22:35:00,
2013-07-24 18:37:00,73.8,32.5,29.84,East,90,3.5,3.5,22,0.00,CLR,,0.00,WeatherDisplay:10.37,2013-07-24 22:37:00,
2013-07-24 18:38:00,73.8,32.5,29.84,NNE,22,3.5,3.5,22,0.00,CLR,,0.00,WeatherDisplay:10.37,2013-07-24 22:38:00,
2013-07-24 18:39:00,73.8,33.6,29.84,NNW,338,4.6,4.6,23,0.00,CLR,,0.00,WeatherDisplay:10.37,2013-07-24 22:39:00,
2013-07-24 18:40:00,73.8,32.5,29.84,North,0,4.6,4.6,22,0.00,CLR,,0.00,WeatherDisplay:10.37,2013-07-24 22:40:00,
2013-07-24 18:42:00,74.1,33.9,29.84,NNE,22,1.2,0.0,23,0.00,CLR,,0.00,WeatherDisplay:10.37,2013-07-24 22:42:00,
2013-07-24 18:43:00,74.1,33.9,29.84,ENE,68,1.2,1.2,23,0.00,CLR,,0.00,WeatherDisplay:10.37,2013-07-24 22:43:00,
2013-07-24 18:44:00,74.1,33.9,29.84,East,90,1.2,0.0,23,0.00,CLR,,0.00,WeatherDisplay:10.37,2013-07-24 22:44:00,
2013-07-24 18:45:00,74.1,32.8,29.84,East,90,0.0,0.0,22,0.00,CLR,,0.00,WeatherDisplay:10.37,2013-07-24 22:45:00,
2013-07-24 18:47:00,74.1,32.8,29.84,ESE,112,1.2,0.0,22,0.00,CLR,,0.00,WeatherDisplay:10.37,2013-07-24 22:47:00,
2013-07-24 18:49:00,73.9,33.8,29.84,ENE,68,3.5,0.0,23,0.00,CLR,,0.00,WeatherDisplay:10.37,2013-07-24 22:49:00,
2013-07-24 18:50:00,73.9,32.7,29.84,ESE,112,3.5,0.0,22,0.00,CLR,,0.00,WeatherDisplay:10.37,2013-07-24 22:50:00,
2013-07-24 18:53:00,73.4,33.3,29.84,ESE,112,2.4,2.4,23,0.00,CLR,,0.00,WeatherDisplay:10.37,2013-07-24 22:53:00,
2013-07-24 18:54:00,73.4,32.2,29.84,ESE,112,2.3,0.0,22,0.00,CLR,,0.00,WeatherDisplay:10.37,2013-07-24 22:54:00,
2013-07-24 18:55:00,73.6,33.5,29.84,ESE,112,0.0,0.0,23,0.00,CLR,,0.00,WeatherDisplay:10.37,2013-07-24 22:55:00,
2013-07-24 18:58:00,72.9,32.9,29.84,ESE,112,0.0,0.0,23,0.00,CLR,,0.00,WeatherDisplay:10.37,2013-07-24 22:58:00,
2013-07-24 18:59:00,72.9,32.9,29.84,NE,45,0.0,0.0,23,0.00,CLR,,0.00,WeatherDisplay:10.37,2013-07-24 22:59:00,
2013-07-24 19:00:00,73.0,33.0,29.84,NE,45,0.0,0.0,23,0.00,CLR,,0.00,WeatherDisplay:10.37,2013-07-24 23:00:00,
2013-07-24 19:03:00,73.0,33.0,29.84,ENE,68,1.2,0.0,23,0.00,CLR,,0.00,WeatherDisplay:10.37,2013-07-24 23:03:00,
2013-07-24 19:04:00,73.0,33.0,29.84,NNE,22,1.4,1.4,23,0.00,CLR,,0.00,WeatherDisplay:10.37,2013-07-24 23:04:00,
2013-07-24 19:05:00,73.0,33.0,29.84,NE,45,4.0,4.0,23,0.00,CLR,,0.00,WeatherDisplay:10.37,2013-07-24 23:05:00,
2013-07-24 19:06:00,72.7,32.7,29.84,NE,45,4.6,4.6,23,0.00,CLR,,0.00,WeatherDisplay:10.37,2013-07-24 23:06:00,
2013-07-24 19:08:00,72.5,32.6,29.84,North,0,1.2,0.0,23,0.00,CLR,,0.00,WeatherDisplay:10.37,2013-07-24 23:08:00,
2013-07-24 19:09:00,72.5,32.6,29.84,NE,45,1.2,0.0,23,0.00,CLR,,0.00,WeatherDisplay:10.37,2013-07-24 23:09:00,
2013-07-24 19:10:00,72.1,32.3,29.84,ENE,68,0.0,0.0,23,0.00,CLR,,0.00,WeatherDisplay:10.37,2013-07-24 23:10:00,
2013-07-24 19:11:00,72.1,32.3,29.84,ENE,68,0.0,0.0,23,0.00,CLR,,0.00,WeatherDisplay:10.37,2013-07-24 23:11:00,
2013-07-24 19:13:00,71.8,33.0,29.84,NE,45,0.0,0.0,24,0.00,CLR,,0.00,WeatherDisplay:10.37,2013-07-24 23:13:00,
2013-07-24 19:15:00,72.0,33.2,29.84,NE,45,0.0,0.0,24,0.00,CLR,,0.00,WeatherDisplay:10.37,2013-07-24 23:15:00,
2013-07-24 19:16:00,72.0,33.2,29.84,NE,45,0.0,0.0,24,0.00,CLR,,0.00,WeatherDisplay:10.37,2013-07-24 23:16:00,
2013-07-24 19:19:00,71.8,33.0,29.84,East,90,0.0,0.0,24,0.00,CLR,,0.00,WeatherDisplay:10.37,2013-07-24 23:19:00,
2013-07-24 19:20:00,71.6,32.9,29.84,ENE,68,0.0,0.0,24,0.00,CLR,,0.00,WeatherDisplay:10.37,2013-07-24 23:20:00,
2013-07-24 19:21:00,71.6,32.9,29.84,ENE,68,0.0,0.0,24,0.00,CLR,,0.00,WeatherDisplay:10.37,2013-07-24 23:21:00,
2013-07-24 19:22:00,71.2,33.6,29.84,ENE,68,0.0,0.0,25,0.00,CLR,,0.00,WeatherDisplay:10.37,2013-07-24 23:22:00,
2013-07-24 19:24:00,71.2,33.6,29.84,NE,45,1.2,0.0,25,0.00,CLR,,0.00,WeatherDisplay:10.37,2013-07-24 23:24:00,
2013-07-24 19:25:00,71.2,33.6,29.84,ENE,68,1.2,0.0,25,0.00,CLR,,0.00,WeatherDisplay:10.37,2013-07-24 23:25:00,
2013-07-24 19:26:00,71.2,33.6,29.84,ENE,68,1.2,0.0,25,0.00,CLR,,0.00,WeatherDisplay:10.37,2013-07-24 23:26:00,
2013-07-24 19:27:00,71.2,33.6,29.84,ENE,68,0.0,0.0,25,0.00,CLR,,0.00,WeatherDisplay:10.37,2013-07-24 23:27:00,
2013-07-24 19:29:00,71.2,33.6,29.84,ENE,68,0.0,0.0,25,0.00,CLR,,0.00,WeatherDisplay:10.37,2013-07-24 23:29:00,
2013-07-24 19:30:00,71.2,33.6,29.84,NE,45,1.4,0.0,25,0.00,CLR,,0.00,WeatherDisplay:10.37,2013-07-24 23:30:00,
2013-07-24 19:31:00,71.2,33.6,29.84,NE,45,1.6,0.0,25,0.00,CLR,,0.00,WeatherDisplay:10.37,2013-07-24 23:31:00,
2013-07-24 19:32:00,71.1,33.4,29.84,NE,45,1.2,1.2,25,0.00,CLR,,0.00,WeatherDisplay:10.37,2013-07-24 23:32:00,
2013-07-24 19:34:00,70.7,33.1,29.84,NE,45,0.0,0.0,25,0.00,CLR,,0.00,WeatherDisplay:10.37,2013-07-24 23:34:00,
2013-07-24 19:36:00,70.3,33.8,29.84,NE,45,0.0,0.0,26,0.00,CLR,,0.00,WeatherDisplay:10.37,2013-07-24 23:36:00,
2013-07-24 19:37:00,70.0,35.4,29.84,NE,45,0.0,0.0,28,0.00,CLR,,0.00,WeatherDisplay:10.37,2013-07-24 23:37:00,
2013-07-24 19:40:00,69.4,34.0,29.84,ENE,68,0.0,0.0,27,0.00,CLR,,0.00,WeatherDisplay:10.37,2013-07-24 23:40:00,
2013-07-24 19:41:00,69.1,33.7,29.84,ENE,68,0.0,0.0,27,0.00,CLR,,0.00,WeatherDisplay:10.37,2013-07-24 23:41:00,
2013-07-24 19:42:00,69.1,33.7,29.84,ENE,68,0.0,0.0,27,0.00,CLR,,0.00,WeatherDisplay:10.37,2013-07-24 23:42:00,
2013-07-24 19:45:00,68.2,34.7,29.84,NNW,338,0.0,0.0,29,0.00,CLR,,0.00,WeatherDisplay:10.37,2013-07-24 23:45:00,
2013-07-24 19:47:00,68.0,33.7,29.84,ENE,68,0.0,0.0,28,0.00,CLR,,0.00,WeatherDisplay:10.37,2013-07-24 23:47:00,
2013-07-24 19:48:00,67.6,34.2,29.84,North,0,3.3,3.3,29,0.00,CLR,,0.00,WeatherDisplay:10.37,2013-07-24 23:48:00,
2013-07-24 19:50:00,67.3,34.8,29.87,NE,45,1.2,0.0,30,0.00,CLR,,0.00,WeatherDisplay:10.37,2013-07-24 23:50:00,
2013-07-24 19:52:00,67.1,35.4,29.87,ENE,68,1.2,0.0,31,0.00,CLR,,0.00,WeatherDisplay:10.37,2013-07-24 23:52:00,
2013-07-24 19:53:00,66.9,36.1,29.87,ENE,68,0.0,0.0,32,0.00,CLR,,0.00,WeatherDisplay:10.37,2013-07-24 23:53:00,
2013-07-24 19:55:00,66.6,36.5,29.87,ENE,68,0.0,0.0,33,0.00,CLR,,0.00,WeatherDisplay:10.37,2013-07-24 23:55:00,
2013-07-24 19:57:00,66.6,36.5,29.87,ENE,68,0.0,0.0,33,0.00,CLR,,0.00,WeatherDisplay:10.37,2013-07-24 23:57:00,
2013-07-24 19:58:00,66.2,36.2,29.87,ENE,68,0.0,0.0,33,0.00,CLR,,0.00,WeatherDisplay:10.37,2013-07-24 23:58:00,
2013-07-24 19:59:00,66.2,37.0,29.87,ENE,68,0.0,0.0,34,0.00,CLR,,0.00,WeatherDisplay:10.37,2013-07-24 23:59:00,
2013-07-24 20:00:00,66.0,36.8,29.87,ENE,68,0.0,0.0,34,0.00,CLR,,0.00,WeatherDisplay:10.37,2013-07-25 00:00:00,
2013-07-24 20:02:00,65.7,36.5,29.87,ENE,68,0.0,0.0,34,0.00,CLR,,0.00,WeatherDisplay:10.37,2013-07-25 00:02:00,
2013-07-24 20:03:00,65.5,37.1,29.87,ENE,68,0.0,0.0,35,0.00,CLR,,0.00,WeatherDisplay:10.37,2013-07-25 00:03:00,
2013-07-24 20:04:00,65.3,36.9,29.87,ENE,68,0.0,0.0,35,0.00,CLR,,0.00,WeatherDisplay:10.37,2013-07-25 00:04:00,
2013-07-24 20:05:00,65.3,36.9,29.87,ENE,68,0.0,0.0,35,0.00,CLR,,0.00,WeatherDisplay:10.37,2013-07-25 00:05:00,
2013-07-24 20:08:00,64.9,35.9,29.87,ENE,68,0.0,0.0,34,0.00,CLR,,0.00,WeatherDisplay:10.37,2013-07-25 00:08:00,
2013-07-24 20:09:00,64.9,36.6,29.87,ENE,68,0.0,0.0,35,0.00,CLR,,0.00,WeatherDisplay:10.37,2013-07-25 00:09:00,
2013-07-24 20:11:00,64.8,36.5,29.87,ENE,68,1.2,0.0,35,0.00,CLR,,0.00,WeatherDisplay:10.37,2013-07-25 00:11:00,
2013-07-24 20:13:00,64.4,36.1,29.87,ENE,68,0.0,0.0,35,0.00,CLR,,0.00,WeatherDisplay:10.37,2013-07-25 00:13:00,
2013-07-24 20:15:00,64.2,36.7,29.87,ENE,68,0.0,0.0,36,0.00,CLR,,0.00,WeatherDisplay:10.37,2013-07-25 00:15:00,
2013-07-24 20:16:00,64.2,36.7,29.87,ENE,68,0.0,0.0,36,0.00,CLR,,0.00,WeatherDisplay:10.37,2013-07-25 00:16:00,
2013-07-24 20:18:00,63.9,36.4,29.87,ENE,68,0.0,0.0,36,0.00,CLR,,0.00,WeatherDisplay:10.37,2013-07-25 00:18:00,
2013-07-24 20:20:00,63.7,36.9,29.87,ENE,68,0.0,0.0,37,0.00,CLR,,0.00,WeatherDisplay:10.37,2013-07-25 00:20:00,
2013-07-24 20:21:00,63.5,36.7,29.87,ENE,68,0.0,0.0,37,0.00,CLR,,0.00,WeatherDisplay:10.37,2013-07-25 00:21:00,
2013-07-24 20:23:00,63.3,36.6,29.87,East,90,0.0,0.0,37,0.00,CLR,,0.00,WeatherDisplay:10.37,2013-07-25 00:23:00,
2013-07-24 20:25:00,63.1,36.4,29.87,East,90,0.0,0.0,37,0.00,CLR,,0.00,WeatherDisplay:10.37,2013-07-25 00:25:00,
2013-07-24 20:27:00,63.0,36.9,29.87,East,90,0.0,0.0,38,0.00,CLR,,0.00,WeatherDisplay:10.37,2013-07-25 00:27:00,
2013-07-24 20:28:00,63.0,37.6,29.87,East,90,0.0,0.0,39,0.00,CLR,,0.00,WeatherDisplay:10.37,2013-07-25 00:28:00,
2013-07-24 20:29:00,63.0,37.6,29.87,East,90,0.0,0.0,39,0.00,CLR,,0.00,WeatherDisplay:10.37,2013-07-25 00:29:00,
2013-07-24 20:30:00,62.8,37.4,29.87,East,90,0.0,0.0,39,0.00,CLR,,0.00,WeatherDisplay:10.37,2013-07-25 00:30:00,
2013-07-24 20:32:00,62.6,37.3,29.87,East,90,0.0,0.0,39,0.00,CLR,,0.00,WeatherDisplay:10.37,2013-07-25 00:32:00,
2013-07-24 20:33:00,62.6,37.3,29.87,East,90,0.0,0.0,39,0.00,CLR,,0.00,WeatherDisplay:10.37,2013-07-25 00:33:00,
2013-07-24 20:34:00,62.6,37.3,29.87,East,90,0.0,0.0,39,0.00,CLR,,0.00,WeatherDisplay:10.37,2013-07-25 00:34:00,
2013-07-24 20:35:00,62.4,38.4,29.87,East,90,0.0,0.0,41,0.00,CLR,,0.00,WeatherDisplay:10.37,2013-07-25 00:35:00,
2013-07-24 20:37:00,62.2,38.8,29.87,East,90,0.0,0.0,42,0.00,CLR,,0.00,WeatherDisplay:10.37,2013-07-25 00:37:00,
2013-07-24 20:38:00,62.2,38.8,29.87,East,90,0.0,0.0,42,0.00,CLR,,0.00,WeatherDisplay:10.37,2013-07-25 00:38:00,
2013-07-24 20:39:00,62.1,38.7,29.87,East,90,0.0,0.0,42,0.00,CLR,,0.00,WeatherDisplay:10.37,2013-07-25 00:39:00,
2013-07-24 20:40:00,62.1,38.1,29.87,East,90,0.0,0.0,41,0.00,CLR,,0.00,WeatherDisplay:10.37,2013-07-25 00:40:00,
2013-07-24 20:42:00,61.9,37.9,29.87,East,90,0.0,0.0,41,0.00,CLR,,0.00,WeatherDisplay:10.37,2013-07-25 00:42:00,
2013-07-24 20:44:00,61.9,39.1,29.87,East,90,0.0,0.0,43,0.00,CLR,,0.00,WeatherDisplay:10.37,2013-07-25 00:44:00,
2013-07-24 20:45:00,61.9,39.1,29.87,East,90,0.0,0.0,43,0.00,CLR,,0.00,WeatherDisplay:10.37,2013-07-25 00:45:00,
2013-07-24 20:47:00,61.7,39.6,29.87,East,90,0.0,0.0,44,0.00,CLR,,0.00,WeatherDisplay:10.37,2013-07-25 00:47:00,
2013-07-24 20:49:00,61.5,39.4,29.87,East,90,0.0,0.0,44,0.00,CLR,,0.00,WeatherDisplay:10.37,2013-07-25 00:49:00,
2013-07-24 20:50:00,61.5,39.4,29.87,East,90,0.0,0.0,44,0.00,CLR,,0.00,WeatherDisplay:10.37,2013-07-25 00:50:00,
2013-07-24 20:52:00,61.3,39.2,29.87,East,90,0.0,0.0,44,0.00,CLR,,0.00,WeatherDisplay:10.37,2013-07-25 00:52:00,
2013-07-24 20:54:00,61.3,39.2,29.87,East,90,0.0,0.0,44,0.00,CLR,,0.00,WeatherDisplay:10.37,2013-07-25 00:54:00,
2013-07-24 20:55:00,61.3,39.2,29.87,East,90,0.0,0.0,44,0.00,CLR,,0.00,WeatherDisplay:10.37,2013-07-25 00:55:00,
2013-07-24 20:58:00,61.0,38.9,29.87,East,90,0.0,0.0,44,0.00,CLR,,0.00,WeatherDisplay:10.37,2013-07-25 00:58:00,
2013-07-24 20:59:00,60.8,39.3,29.87,East,90,0.0,0.0,45,0.00,CLR,,0.00,WeatherDisplay:10.37,2013-07-25 00:59:00,
2013-07-24 21:00:00,60.8,39.3,29.87,East,90,0.0,0.0,45,0.00,CLR,,0.00,WeatherDisplay:10.37,2013-07-25 01:00:00,
2013-07-24 21:03:00,60.6,39.1,29.87,East,90,0.0,0.0,45,0.00,CLR,,0.00,WeatherDisplay:10.37,2013-07-25 01:03:00,
2013-07-24 21:04:00,60.4,39.5,29.87,East,90,0.0,0.0,46,0.00,CLR,,0.00,WeatherDisplay:10.37,2013-07-25 01:04:00,
2013-07-24 21:05:00,60.4,39.5,29.87,East,90,0.0,0.0,46,0.00,CLR,,0.00,WeatherDisplay:10.37,2013-07-25 01:05:00,
2013-07-24 21:06:00,60.3,39.4,29.87,East,90,0.0,0.0,46,0.00,CLR,,0.00,WeatherDisplay:10.37,2013-07-25 01:06:00,
2013-07-24 21:08:00,60.3,39.4,29.87,East,90,0.0,0.0,46,0.00,CLR,,0.00,WeatherDisplay:10.37,2013-07-25 01:08:00,
2013-07-24 21:09:00,60.1,39.8,29.87,East,90,0.0,0.0,47,0.00,CLR,,0.00,WeatherDisplay:10.37,2013-07-25 01:09:00,
2013-07-24 21:10:00,60.1,39.8,29.87,East,90,0.0,0.0,47,0.00,CLR,,0.00,WeatherDisplay:10.37,2013-07-25 01:10:00,
2013-07-24 21:11:00,60.1,39.8,29.87,East,90,0.0,0.0,47,0.00,CLR,,0.00,WeatherDisplay:10.37,2013-07-25 01:11:00,
2013-07-24 21:13:00,59.9,40.1,29.87,East,90,0.0,0.0,48,0.00,CLR,,0.00,WeatherDisplay:10.37,2013-07-25 01:13:00,
2013-07-24 21:14:00,59.9,40.7,29.87,East,90,0.0,0.0,49,0.00,CLR,,0.00,WeatherDisplay:10.37,2013-07-25 01:14:00,
2013-07-24 21:15:00,59.9,40.7,29.87,East,90,0.0,0.0,49,0.00,CLR,,0.00,WeatherDisplay:10.37,2013-07-25 01:15:00,
2013-07-24 21:16:00,59.9,40.1,29.87,East,90,0.0,0.0,48,0.00,CLR,,0.00,WeatherDisplay:10.37,2013-07-25 01:16:00,
2013-07-24 21:18:00,59.7,40.5,29.87,East,90,0.0,0.0,49,0.00,CLR,,0.00,WeatherDisplay:10.37,2013-07-25 01:18:00,
2013-07-24 21:19:00,59.7,40.5,29.87,East,90,0.0,0.0,49,0.00,CLR,,0.00,WeatherDisplay:10.37,2013-07-25 01:19:00,
2013-07-24 21:21:00,59.7,40.5,29.87,East,90,0.0,0.0,49,0.00,CLR,,0.00,WeatherDisplay:10.37,2013-07-25 01:21:00,
2013-07-24 21:23:00,59.7,41.0,29.87,East,90,0.0,0.0,50,0.00,CLR,,0.00,WeatherDisplay:10.37,2013-07-25 01:23:00,
2013-07-24 21:24:00,59.5,40.9,29.87,East,90,0.0,0.0,50,0.00,CLR,,0.00,WeatherDisplay:10.37,2013-07-25 01:24:00,
2013-07-24 21:26:00,59.5,40.9,29.87,East,90,0.0,0.0,50,0.00,CLR,,0.00,WeatherDisplay:10.37,2013-07-25 01:26:00,
2013-07-24 21:27:00,59.5,40.9,29.87,East,90,0.0,0.0,50,0.00,CLR,,0.00,WeatherDisplay:10.37,2013-07-25 01:27:00,
2013-07-24 21:29:00,59.4,40.7,29.87,East,90,0.0,0.0,50,0.00,CLR,,0.00,WeatherDisplay:10.37,2013-07-25 01:29:00,
2013-07-24 21:32:00,59.4,40.7,29.87,East,90,0.0,0.0,50,0.00,CLR,,0.00,WeatherDisplay:10.37,2013-07-25 01:32:00,
2013-07-24 21:33:00,59.4,40.7,29.87,East,90,0.0,0.0,50,0.00,CLR,,0.00,WeatherDisplay:10.37,2013-07-25 01:33:00,
2013-07-24 21:34:00,59.4,41.2,29.87,East,90,0.0,0.0,51,0.00,CLR,,0.00,WeatherDisplay:10.37,2013-07-25 01:34:00,
2013-07-24 21:35:00,59.2,41.1,29.87,East,90,0.0,0.0,51,0.00,CLR,,0.00,WeatherDisplay:10.37,2013-07-25 01:35:00,
2013-07-24 21:37:00,59.2,41.1,29.87,East,90,0.0,0.0,51,0.00,CLR,,0.00,WeatherDisplay:10.37,2013-07-25 01:37:00,
2013-07-24 21:38:00,59.2,41.1,29.87,East,90,0.0,0.0,51,0.00,CLR,,0.00,WeatherDisplay:10.37,2013-07-25 01:38:00,
2013-07-24 21:39:00,59.2,41.1,29.87,East,90,0.0,0.0,51,0.00,CLR,,0.00,WeatherDisplay:10.37,2013-07-25 01:39:00,
2013-07-24 21:40:00,59.2,41.1,29.87,East,90,0.0,0.0,51,0.00,CLR,,0.00,WeatherDisplay:10.37,2013-07-25 01:40:00,
2013-07-24 21:42:00,59.0,40.9,29.87,East,90,0.0,0.0,51,0.00,CLR,,0.00,WeatherDisplay:10.37,2013-07-25 01:42:00,
2013-07-24 21:43:00,59.0,40.9,29.87,East,90,0.0,0.0,51,0.00,CLR,,0.00,WeatherDisplay:10.37,2013-07-25 01:43:00,
2013-07-24 21:44:00,58.8,41.2,29.87,East,90,0.0,0.0,52,0.00,CLR,,0.00,WeatherDisplay:10.37,2013-07-25 01:44:00,
2013-07-24 21:45:00,58.8,41.2,29.87,East,90,0.0,0.0,52,0.00,CLR,,0.00,WeatherDisplay:10.37,2013-07-25 01:45:00,
2013-07-24 21:48:00,58.6,41.5,29.87,East,90,0.0,0.0,53,0.00,CLR,,0.00,WeatherDisplay:10.37,2013-07-25 01:48:00,
2013-07-24 21:49:00,58.5,41.4,29.87,East,90,0.0,0.0,53,0.00,CLR,,0.00,WeatherDisplay:10.37,2013-07-25 01:49:00,
2013-07-24 21:50:00,58.5,41.4,29.87,East,90,0.0,0.0,53,0.00,CLR,,0.00,WeatherDisplay:10.37,2013-07-25 01:50:00,
2013-07-24 21:53:00,58.5,41.9,29.87,East,90,0.0,0.0,54,0.00,CLR,,0.00,WeatherDisplay:10.37,2013-07-25 01:53:00,
2013-07-24 21:54:00,58.5,41.9,29.87,East,90,0.0,0.0,54,0.00,CLR,,0.00,WeatherDisplay:10.37,2013-07-25 01:54:00,
2013-07-24 21:56:00,58.5,41.9,29.87,East,90,0.0,0.0,54,0.00,CLR,,0.00,WeatherDisplay:10.37,2013-07-25 01:56:00,
2013-07-24 21:58:00,58.3,41.7,29.87,East,90,0.0,0.0,54,0.00,CLR,,0.00,WeatherDisplay:10.37,2013-07-25 01:58:00,
2013-07-24 21:59:00,58.3,41.7,29.87,East,90,0.0,0.0,54,0.00,CLR,,0.00,WeatherDisplay:10.37,2013-07-25 01:59:00,
2013-07-24 22:01:00,58.3,41.7,29.87,East,90,0.0,0.0,54,0.00,CLR,,0.00,WeatherDisplay:10.37,2013-07-25 02:01:00,
2013-07-24 22:03:00,58.1,42.0,29.87,East,90,0.0,0.0,55,0.00,CLR,,0.00,WeatherDisplay:10.37,2013-07-25 02:03:00,
2013-07-24 22:04:00,58.1,42.0,29.87,East,90,0.0,0.0,55,0.00,CLR,,0.00,WeatherDisplay:10.37,2013-07-25 02:04:00,
2013-07-24 22:05:00,58.1,42.5,29.87,East,90,0.0,0.0,56,0.00,CLR,,0.00,WeatherDisplay:10.37,2013-07-25 02:05:00,
2013-07-24 22:06:00,57.9,42.3,29.87,East,90,0.0,0.0,56,0.00,CLR,,0.00,WeatherDisplay:10.37,2013-07-25 02:06:00,
2013-07-24 22:08:00,57.9,42.3,29.87,East,90,0.0,0.0,56,0.00,CLR,,0.00,WeatherDisplay:10.37,2013-07-25 02:08:00,
2013-07-24 22:09:00,57.9,42.3,29.87,East,90,0.0,0.0,56,0.00,CLR,,0.00,WeatherDisplay:10.37,2013-07-25 02:09:00,
2013-07-24 22:10:00,57.9,42.3,29.87,East,90,0.0,0.0,56,0.00,CLR,,0.00,WeatherDisplay:10.37,2013-07-25 02:10:00,
2013-07-24 22:11:00,57.9,42.3,29.87,East,90,0.0,0.0,56,0.00,CLR,,0.00,WeatherDisplay:10.37,2013-07-25 02:11:00,
2013-07-24 22:13:00,57.9,42.3,29.87,East,90,0.0,0.0,56,0.00,CLR,,0.00,WeatherDisplay:10.37,2013-07-25 02:13:00,
2013-07-24 22:14:00,57.9,42.8,29.87,East,90,0.0,0.0,57,0.00,CLR,,0.00,WeatherDisplay:10.37,2013-07-25 02:14:00,
2013-07-24 22:15:00,57.7,42.6,29.87,East,90,0.0,0.0,57,0.00,CLR,,0.00,WeatherDisplay:10.37,2013-07-25 02:15:00,
2013-07-24 22:16:00,57.7,42.6,29.87,East,90,0.0,0.0,57,0.00,CLR,,0.00,WeatherDisplay:10.37,2013-07-25 02:16:00,
2013-07-24 22:18:00,57.6,42.4,29.87,East,90,0.0,0.0,57,0.00,CLR,,0.00,WeatherDisplay:10.37,2013-07-25 02:18:00,
2013-07-24 22:19:00,57.6,42.4,29.87,East,90,0.0,0.0,57,0.00,CLR,,0.00,WeatherDisplay:10.37,2013-07-25 02:19:00,
2013-07-24 22:20:00,57.6,42.4,29.87,East,90,0.0,0.0,57,0.00,CLR,,0.00,WeatherDisplay:10.37,2013-07-25 02:20:00,
2013-07-24 22:21:00,57.6,42.4,29.87,East,90,0.0,0.0,57,0.00,CLR,,0.00,WeatherDisplay:10.37,2013-07-25 02:21:00,
2013-07-24 22:23:00,57.6,42.9,29.87,East,90,0.0,0.0,58,0.00,CLR,,0.00,WeatherDisplay:10.37,2013-07-25 02:23:00,
2013-07-24 22:24:00,57.6,43.3,29.87,East,90,0.0,0.0,59,0.00,CLR,,0.00,WeatherDisplay:10.37,2013-07-25 02:24:00,
2013-07-24 22:25:00,57.6,43.3,29.87,East,90,0.0,0.0,59,0.00,CLR,,0.00,WeatherDisplay:10.37,2013-07-25 02:25:00,
2013-07-24 22:26:00,57.6,43.8,29.87,East,90,0.0,0.0,60,0.00,CLR,,0.00,WeatherDisplay:10.37,2013-07-25 02:26:00,
2013-07-24 22:28:00,57.4,44.0,29.87,East,90,0.0,0.0,61,0.00,CLR,,0.00,WeatherDisplay:10.37,2013-07-25 02:28:00,
2013-07-24 22:29:00,57.2,43.9,29.87,East,90,0.0,0.0,61,0.00,CLR,,0.00,WeatherDisplay:10.37,2013-07-25 02:29:00,
2013-07-24 22:30:00,57.2,43.9,29.87,East,90,0.0,0.0,61,0.00,CLR,,0.00,WeatherDisplay:10.37,2013-07-25 02:30:00,
2013-07-24 22:31:00,57.2,43.9,29.87,East,90,0.0,0.0,61,0.00,CLR,,0.00,WeatherDisplay:10.37,2013-07-25 02:31:00,
2013-07-24 22:34:00,57.0,44.1,29.87,East,90,0.0,0.0,62,0.00,CLR,,0.00,WeatherDisplay:10.37,2013-07-25 02:34:00,
2013-07-24 22:35:00,57.0,44.1,29.87,East,90,0.0,0.0,62,0.00,CLR,,0.00,WeatherDisplay:10.37,2013-07-25 02:35:00,
2013-07-24 22:37:00,57.0,44.1,29.87,East,90,0.0,0.0,62,0.00,CLR,,0.00,WeatherDisplay:10.37,2013-07-25 02:37:00,
2013-07-24 22:39:00,56.8,44.4,29.87,East,90,0.0,0.0,63,0.00,CLR,,0.00,WeatherDisplay:10.37,2013-07-25 02:39:00,
2013-07-24 22:40:00,56.8,44.4,29.87,East,90,0.0,0.0,63,0.00,CLR,,0.00,WeatherDisplay:10.37,2013-07-25 02:40:00,
2013-07-24 22:41:00,56.8,44.4,29.87,East,90,0.0,0.0,63,0.00,CLR,,0.00,WeatherDisplay:10.37,2013-07-25 02:41:00,
2013-07-24 22:42:00,56.8,44.4,29.87,East,90,0.0,0.0,63,0.00,CLR,,0.00,WeatherDisplay:10.37,2013-07-25 02:42:00,
2013-07-24 22:45:00,56.7,43.8,29.87,East,90,0.0,0.0,62,0.00,CLR,,0.00,WeatherDisplay:10.37,2013-07-25 02:45:00,
2013-07-24 22:46:00,56.7,44.2,29.87,East,90,0.0,0.0,63,0.00,CLR,,0.00,WeatherDisplay:10.37,2013-07-25 02:46:00,
2013-07-24 22:47:00,56.7,44.2,29.87,East,90,0.0,0.0,63,0.00,CLR,,0.00,WeatherDisplay:10.37,2013-07-25 02:47:00,
2013-07-24 22:50:00,56.7,44.6,29.87,East,90,0.0,0.0,64,0.00,CLR,,0.00,WeatherDisplay:10.37,2013-07-25 02:50:00,
2013-07-24 22:51:00,56.7,44.6,29.87,East,90,0.0,0.0,64,0.00,CLR,,0.00,WeatherDisplay:10.37,2013-07-25 02:51:00,
2013-07-24 22:52:00,56.8,44.8,29.87,East,90,0.0,0.0,64,0.00,CLR,,0.00,WeatherDisplay:10.37,2013-07-25 02:52:00,
2013-07-24 22:55:00,56.8,44.8,29.87,East,90,0.0,0.0,64,0.00,CLR,,0.00,WeatherDisplay:10.37,2013-07-25 02:55:00,
2013-07-24 22:56:00,56.7,44.6,29.87,East,90,0.0,0.0,64,0.00,CLR,,0.00,WeatherDisplay:10.37,2013-07-25 02:56:00,
2013-07-24 22:57:00,56.7,44.6,29.87,East,90,0.0,0.0,64,0.00,CLR,,0.00,WeatherDisplay:10.37,2013-07-25 02:57:00,
2013-07-24 23:01:00,56.5,44.9,29.87,East,90,0.0,0.0,65,0.00,CLR,,0.00,WeatherDisplay:10.37,2013-07-25 03:01:00,
2013-07-24 23:02:00,56.5,44.9,29.87,East,90,0.0,0.0,65,0.00,CLR,,0.00,WeatherDisplay:10.37,2013-07-25 03:02:00,
2013-07-24 23:07:00,56.3,44.7,29.87,East,90,0.0,0.0,65,0.00,CLR,,0.00,WeatherDisplay:10.37,2013-07-25 03:07:00,
2013-07-24 23:09:00,56.3,45.1,29.87,East,90,0.0,0.0,66,0.00,CLR,,0.00,WeatherDisplay:10.37,2013-07-25 03:09:00,
2013-07-24 23:12:00,56.3,45.5,29.87,East,90,0.0,0.0,67,0.00,CLR,,0.00,WeatherDisplay:10.37,2013-07-25 03:12:00,
2013-07-24 23:13:00,56.3,45.5,29.87,East,90,0.0,0.0,67,0.00,CLR,,0.00,WeatherDisplay:10.37,2013-07-25 03:13:00,
2013-07-24 23:14:00,56.3,45.5,29.87,East,90,0.0,0.0,67,0.00,CLR,,0.00,WeatherDisplay:10.37,2013-07-25 03:14:00,
2013-07-24 23:17:00,56.1,45.3,29.87,East,90,0.0,0.0,67,0.00,CLR,,0.00,WeatherDisplay:10.37,2013-07-25 03:17:00,
2013-07-24 23:18:00,56.1,44.9,29.87,East,90,0.0,0.0,66,0.00,CLR,,0.00,WeatherDisplay:10.37,2013-07-25 03:18:00,
2013-07-24 23:19:00,56.1,44.9,29.87,East,90,0.0,0.0,66,0.00,CLR,,0.00,WeatherDisplay:10.37,2013-07-25 03:19:00,
2013-07-24 23:24:00,55.9,44.7,29.87,East,90,0.0,0.0,66,0.00,CLR,,0.00,WeatherDisplay:10.37,2013-07-25 03:24:00,
2013-07-24 23:29:00,56.1,45.3,29.87,East,90,0.0,0.0,67,0.00,CLR,,0.00,WeatherDisplay:10.37,2013-07-25 03:29:00,
2013-07-24 23:34:00,56.1,45.3,29.87,East,90,0.0,0.0,67,0.00,CLR,,0.00,WeatherDisplay:10.37,2013-07-25 03:34:00,
2013-07-24 23:39:00,56.1,45.7,29.87,East,90,0.0,0.0,68,0.00,CLR,,0.00,WeatherDisplay:10.37,2013-07-25 03:39:00,
2013-07-24 23:40:00,56.1,45.7,29.87,East,90,0.0,0.0,68,0.00,CLR,,0.00,WeatherDisplay:10.37,2013-07-25 03:40:00,
2013-07-24 23:44:00,55.9,45.5,29.87,East,90,0.0,0.0,68,0.00,CLR,,0.00,WeatherDisplay:10.37,2013-07-25 03:44:00,
2013-07-24 23:45:00,55.9,45.5,29.87,East,90,0.0,0.0,68,0.00,CLR,,0.00,WeatherDisplay:10.37,2013-07-25 03:45:00,
2013-07-24 23:49:00,55.9,45.5,29.87,East,90,0.0,0.0,68,0.00,CLR,,0.00,WeatherDisplay:10.37,2013-07-25 03:49:00,
2013-07-24 23:50:00,55.9,45.9,29.90,East,90,0.0,0.0,69,0.00,CLR,,0.00,WeatherDisplay:10.37,2013-07-25 03:50:00,
2013-07-24 23:52:00,55.9,45.5,29.90,East,90,0.0,0.0,68,0.00,CLR,,0.00,WeatherDisplay:10.37,2013-07-25 03:52:00,
2013-07-24 23:53:00,55.9,45.5,29.90,East,90,0.0,0.0,68,0.00,CLR,,0.00,WeatherDisplay:10.37,2013-07-25 03:53:00,
2013-07-24 23:55:00,55.9,45.5,29.90,East,90,0.0,0.0,68,0.00,CLR,,0.00,WeatherDisplay:10.37,2013-07-25 03:55:00,
2013-07-24 23:56:00,55.9,45.5,29.90,East,90,0.0,0.0,68,0.00,CLR,,0.00,WeatherDisplay:10.37,2013-07-25 03:56:00,
2013-07-24 23:57:00,55.9,45.5,29.90,East,90,0.0,0.0,68,0.00,CLR,,0.00,WeatherDisplay:10.37,2013-07-25 03:57:00,